Wetterdaten: Montag, 07.08.2023
Datum Zeit Temp. Aussen Temp. o. S. Temp +5cm Feuchte Auss Luftdruck Regen Sonnenschein Regendauer Solar Windben Empfang
07.08.2023 00:00 13,2 C 12,8 C 8,9 C 97 % 1012,6 hPa 0,0 l/m 0 min 0 min 0 W/m 12,9 km/h (3 Bft) 97,83 %
07.08.2023 00:02 13,2 C 12,8 C 9,4 C 97 % 1012,6 hPa 0,0 l/m 0 min 0 min 0 W/m 3,2 km/h (1 Bft) 6,25 %
07.08.2023 00:04 13,2 C 12,8 C 8,9 C 96 % 1012,6 hPa 0,0 l/m 0 min 0 min 0 W/m 19,3 km/h (3 Bft) 84,62 %
07.08.2023 00:08 13,2 C 12,8 C 8,9 C 96 % 1012,6 hPa 0,0 l/m 0 min 0 min 0 W/m 22,5 km/h (4 Bft) 96,91 %
07.08.2023 00:10 13,2 C 12,8 C 8,9 C 96 % 1012,6 hPa 0,0 l/m 0 min 0 min 0 W/m 25,7 km/h (4 Bft) 97,87 %
07.08.2023 00:12 13,2 C 12,8 C 8,9 C 96 % 1012,6 hPa 0,0 l/m 0 min 0 min 0 W/m 12,9 km/h (3 Bft) 97,87 %
07.08.2023 00:14 13,2 C 12,8 C 8,9 C 96 % 1012,6 hPa 0,0 l/m 0 min 0 min 0 W/m 16,1 km/h (3 Bft) 93,48 %
07.08.2023 00:16 13,1 C 12,8 C 8,9 C 96 % 1012,6 hPa 0,0 l/m 0 min 0 min 0 W/m 25,7 km/h (4 Bft) 93,62 %
07.08.2023 00:18 13,1 C 12,8 C 8,9 C 96 % 1012,6 hPa 0,0 l/m 0 min 0 min 0 W/m 19,3 km/h (3 Bft) 95,74 %
07.08.2023 00:20 13,1 C 12,8 C 8,9 C 96 % 1012,6 hPa 0,0 l/m 0 min 0 min 0 W/m 12,9 km/h (3 Bft) 95,74 %
07.08.2023 00:22 13,1 C 12,8 C 8,9 C 96 % 1012,7 hPa 0,0 l/m 0 min 0 min 0 W/m 19,3 km/h (3 Bft) 95,74 %
07.08.2023 00:24 13,1 C 12,8 C 8,9 C 96 % 1012,7 hPa 0,0 l/m 0 min 0 min 0 W/m 9,7 km/h (2 Bft) 93,62 %
07.08.2023 00:26 13,1 C 12,8 C 8,9 C 96 % 1012,6 hPa 0,0 l/m 0 min 0 min 0 W/m 12,9 km/h (3 Bft) 95,74 %
07.08.2023 00:28 13,1 C 12,8 C 8,9 C 96 % 1012,7 hPa 0,0 l/m 0 min 0 min 0 W/m 22,5 km/h (4 Bft) 95,65 %
07.08.2023 00:30 13,1 C 12,8 C 8,9 C 96 % 1012,6 hPa 0,0 l/m 0 min 0 min 0 W/m 19,3 km/h (3 Bft) 97,87 %
07.08.2023 00:32 13,1 C 12,8 C 8,9 C 96 % 1012,6 hPa 0,0 l/m 0 min 0 min 0 W/m 25,7 km/h (4 Bft) 97,87 %
07.08.2023 00:34 13,1 C 12,8 C 8,9 C 96 % 1012,7 hPa 0,0 l/m 0 min 0 min 0 W/m 12,9 km/h (3 Bft) 97,87 %
07.08.2023 00:36 13,1 C 12,8 C 8,9 C 95 % 1012,6 hPa 0,0 l/m 0 min 0 min 0 W/m 25,7 km/h (4 Bft) 97,87 %
07.08.2023 00:38 13,1 C 12,8 C 8,9 C 95 % 1012,6 hPa 0,0 l/m 0 min 0 min 0 W/m 22,5 km/h (4 Bft) 97,87 %
07.08.2023 00:40 13,1 C 12,8 C 8,9 C 95 % 1012,7 hPa 0,0 l/m 0 min 0 min 0 W/m 16,1 km/h (3 Bft) 97,87 %
07.08.2023 00:42 13,1 C 12,8 C 8,9 C 95 % 1012,7 hPa 0,0 l/m 0 min 0 min 0 W/m 19,3 km/h (3 Bft) 97,87 %
07.08.2023 00:44 13,1 C 12,8 C 8,9 C 95 % 1012,6 hPa 0,0 l/m 0 min 0 min 0 W/m 19,3 km/h (3 Bft) 97,83 %
07.08.2023 00:46 13,1 C 12,8 C 8,9 C 95 % 1012,6 hPa 0,0 l/m 0 min 0 min 0 W/m 22,5 km/h (4 Bft) 97,87 %
07.08.2023 00:48 13,1 C 12,8 C 8,9 C 95 % 1012,6 hPa 0,0 l/m 0 min 0 min 0 W/m 16,1 km/h (3 Bft) 97,87 %
07.08.2023 00:50 13,1 C 12,8 C 8,9 C 95 % 1012,6 hPa 0,0 l/m 0 min 0 min 0 W/m 16,1 km/h (3 Bft) 97,87 %
07.08.2023 00:52 13,2 C 12,8 C 8,9 C 95 % 1012,7 hPa 0,0 l/m 0 min 0 min 0 W/m 29,0 km/h (5 Bft) 97,87 %
07.08.2023 00:54 13,1 C 12,8 C 8,9 C 95 % 1012,6 hPa 0,0 l/m 0 min 0 min 0 W/m 19,3 km/h (3 Bft) 97,87 %
07.08.2023 00:56 13,1 C 12,8 C 8,9 C 95 % 1012,6 hPa 0,0 l/m 0 min 0 min 0 W/m 25,7 km/h (4 Bft) 100,00 %
07.08.2023 00:58 13,2 C 12,8 C 8,9 C 95 % 1012,6 hPa 0,0 l/m 0 min 0 min 0 W/m 12,9 km/h (3 Bft) 100,00 %
07.08.2023 01:00 13,2 C 12,8 C 8,9 C 95 % 1012,6 hPa 0,0 l/m 0 min 0 min 0 W/m 16,1 km/h (3 Bft) 100,00 %
07.08.2023 01:02 13,2 C 12,8 C 8,9 C 95 % 1012,6 hPa 0,0 l/m 0 min 0 min 0 W/m 12,9 km/h (3 Bft) 95,74 %
07.08.2023 01:04 13,2 C 12,8 C 8,9 C 95 % 1012,6 hPa 0,0 l/m 0 min 0 min 0 W/m 19,3 km/h (3 Bft) 97,87 %
07.08.2023 01:06 13,2 C 12,8 C 8,9 C 95 % 1012,6 hPa 0,0 l/m 0 min 0 min 0 W/m 29,0 km/h (5 Bft) 97,87 %
07.08.2023 01:08 13,2 C 12,8 C 8,9 C 95 % 1012,6 hPa 0,0 l/m 0 min 0 min 0 W/m 19,3 km/h (3 Bft) 95,74 %
07.08.2023 01:10 13,2 C 12,8 C 8,9 C 95 % 1012,6 hPa 0,0 l/m 0 min 0 min 0 W/m 19,3 km/h (3 Bft) 97,83 %
07.08.2023 01:12 13,2 C 12,8 C 8,9 C 95 % 1012,5 hPa 0,0 l/m 0 min 0 min 0 W/m 16,1 km/h (3 Bft) 97,87 %
07.08.2023 01:14 13,2 C 12,8 C 8,9 C 95 % 1012,6 hPa 0,0 l/m 0 min 0 min 0 W/m 22,5 km/h (4 Bft) 91,49 %
07.08.2023 01:16 13,2 C 12,8 C 8,9 C 95 % 1012,6 hPa 0,0 l/m 0 min 0 min 0 W/m 22,5 km/h (4 Bft) 97,87 %
07.08.2023 01:18 13,2 C 12,8 C 8,9 C 95 % 1012,5 hPa 0,0 l/m 0 min 0 min 0 W/m 19,3 km/h (3 Bft) 95,74 %
07.08.2023 01:20 13,2 C 12,8 C 8,9 C 95 % 1012,6 hPa 0,0 l/m 0 min 0 min 0 W/m 22,5 km/h (4 Bft) 97,87 %
07.08.2023 01:22 13,2 C 12,8 C 8,9 C 95 % 1012,6 hPa 0,0 l/m 0 min 0 min 0 W/m 16,1 km/h (3 Bft) 97,87 %
07.08.2023 01:24 13,2 C 12,2 C 8,9 C 95 % 1012,6 hPa 0,0 l/m 0 min 0 min 0 W/m 19,3 km/h (3 Bft) 97,87 %
07.08.2023 01:26 13,2 C 12,2 C 8,9 C 95 % 1012,6 hPa 0,0 l/m 0 min 0 min 0 W/m 19,3 km/h (3 Bft) 97,83 %
07.08.2023 01:28 13,1 C 12,2 C 8,9 C 95 % 1012,7 hPa 0,0 l/m 0 min 0 min 0 W/m 19,3 km/h (3 Bft) 97,87 %
07.08.2023 01:30 13,1 C 12,2 C 8,9 C 95 % 1012,7 hPa 0,0 l/m 0 min 0 min 0 W/m 22,5 km/h (4 Bft) 95,74 %
07.08.2023 01:32 13,1 C 12,2 C 8,9 C 95 % 1012,6 hPa 0,0 l/m 0 min 0 min 0 W/m 22,5 km/h (4 Bft) 97,87 %
07.08.2023 01:34 13,1 C 12,2 C 8,9 C 95 % 1012,7 hPa 0,0 l/m 0 min 0 min 0 W/m 12,9 km/h (3 Bft) 95,74 %
07.08.2023 01:36 13,1 C 12,2 C 8,9 C 95 % 1012,7 hPa 0,0 l/m 0 min 0 min 0 W/m 16,1 km/h (3 Bft) 97,87 %
07.08.2023 01:38 13,1 C 12,2 C 8,9 C 95 % 1012,6 hPa 0,0 l/m 0 min 0 min 0 W/m 19,3 km/h (3 Bft) 97,87 %
07.08.2023 01:40 13,1 C 12,2 C 8,9 C 95 % 1012,7 hPa 0,0 l/m 0 min 0 min 0 W/m 12,9 km/h (3 Bft) 97,83 %
07.08.2023 01:42 13,1 C 12,2 C 8,9 C 95 % 1012,7 hPa 0,0 l/m 0 min 0 min 0 W/m 16,1 km/h (3 Bft) 97,87 %
07.08.2023 01:44 13,1 C 12,2 C 8,9 C 95 % 1012,7 hPa 0,0 l/m 0 min 0 min 0 W/m 19,3 km/h (3 Bft) 93,62 %
07.08.2023 01:46 13,1 C 12,2 C 8,9 C 95 % 1012,8 hPa 0,0 l/m 0 min 0 min 0 W/m 16,1 km/h (3 Bft) 93,62 %
07.08.2023 01:48 13,0 C 12,2 C 8,9 C 96 % 1012,7 hPa 0,0 l/m 0 min 0 min 0 W/m 22,5 km/h (4 Bft) 93,62 %
07.08.2023 01:50 13,0 C 12,2 C 8,9 C 96 % 1012,6 hPa 0,0 l/m 0 min 0 min 0 W/m 22,5 km/h (4 Bft) 95,74 %
07.08.2023 01:52 12,9 C 12,2 C 8,9 C 96 % 1012,8 hPa 0,0 l/m 0 min 0 min 0 W/m 19,3 km/h (3 Bft) 95,74 %
07.08.2023 01:54 12,9 C 12,2 C 8,9 C 96 % 1012,8 hPa 0,0 l/m 0 min 0 min 0 W/m 29,0 km/h (5 Bft) 95,65 %
07.08.2023 01:56 12,9 C 12,2 C 8,9 C 96 % 1012,8 hPa 0,0 l/m 0 min 0 min 0 W/m 12,9 km/h (3 Bft) 95,74 %
07.08.2023 01:58 12,9 C 12,2 C 8,9 C 96 % 1012,8 hPa 0,0 l/m 0 min 0 min 0 W/m 16,1 km/h (3 Bft) 97,87 %
07.08.2023 02:00 12,9 C 12,2 C 8,9 C 96 % 1012,8 hPa 0,0 l/m 0 min 0 min 0 W/m 12,9 km/h (3 Bft) 93,62 %
07.08.2023 02:02 12,9 C 12,2 C 8,9 C 96 % 1012,8 hPa 0,0 l/m 0 min 2 min 0 W/m 16,1 km/h (3 Bft) 97,87 %
07.08.2023 02:04 12,8 C 12,2 C 8,9 C 96 % 1012,7 hPa 0,0 l/m 0 min 2 min 0 W/m 19,3 km/h (3 Bft) 97,87 %
07.08.2023 02:06 12,8 C 12,2 C 8,9 C 96 % 1012,7 hPa 0,0 l/m 0 min 0 min 0 W/m 6,4 km/h (2 Bft) 97,92 %
07.08.2023 02:08 12,8 C 12,2 C 8,9 C 96 % 1012,8 hPa 0,0 l/m 0 min 0 min 0 W/m 22,5 km/h (4 Bft) 93,62 %
07.08.2023 02:10 12,8 C 12,2 C 8,9 C 96 % 1012,6 hPa 0,0 l/m 0 min 0 min 0 W/m 16,1 km/h (3 Bft) 97,83 %
07.08.2023 02:12 12,8 C 12,2 C 8,9 C 96 % 1012,7 hPa 0,0 l/m 0 min 2 min 0 W/m 19,3 km/h (3 Bft) 97,87 %
07.08.2023 02:14 12,8 C 12,2 C 8,9 C 97 % 1012,7 hPa 0,0 l/m 0 min 0 min 0 W/m 19,3 km/h (3 Bft) 97,87 %
07.08.2023 02:16 12,8 C 12,2 C 8,9 C 97 % 1012,7 hPa 0,0 l/m 0 min 2 min 0 W/m 16,1 km/h (3 Bft) 97,87 %
07.08.2023 02:18 12,8 C 12,2 C 8,9 C 97 % 1012,7 hPa 0,0 l/m 0 min 0 min 0 W/m 19,3 km/h (3 Bft) 100,00 %
07.08.2023 02:20 12,8 C 12,2 C 8,9 C 97 % 1012,7 hPa 0,0 l/m 0 min 0 min 0 W/m 19,3 km/h (3 Bft) 100,00 %
07.08.2023 02:22 12,8 C 12,2 C 8,9 C 97 % 1012,7 hPa 0,0 l/m 0 min 0 min 0 W/m 12,9 km/h (3 Bft) 100,00 %
07.08.2023 02:24 12,8 C 12,2 C 8,9 C 97 % 1012,7 hPa 0,0 l/m 0 min 0 min 0 W/m 25,7 km/h (4 Bft) 97,87 %
07.08.2023 02:26 12,8 C 12,2 C 8,9 C 97 % 1012,7 hPa 0,0 l/m 0 min 2 min 0 W/m 22,5 km/h (4 Bft) 97,87 %
07.08.2023 02:28 12,8 C 12,2 C 8,9 C 97 % 1012,8 hPa 0,0 l/m 0 min 2 min 0 W/m 16,1 km/h (3 Bft) 100,00 %
07.08.2023 02:30 12,8 C 12,2 C 8,9 C 97 % 1012,8 hPa 0,0 l/m 0 min 2 min 0 W/m 25,7 km/h (4 Bft) 100,00 %
07.08.2023 02:32 12,8 C 12,2 C 8,9 C 97 % 1012,8 hPa 0,0 l/m 0 min 2 min 0 W/m 22,5 km/h (4 Bft) 97,87 %
07.08.2023 02:34 12,8 C 12,2 C 8,9 C 97 % 1012,9 hPa 0,0 l/m 0 min 2 min 0 W/m 19,3 km/h (3 Bft) 97,87 %
07.08.2023 02:36 12,8 C 12,2 C 8,9 C 97 % 1012,8 hPa 0,0 l/m 0 min 2 min 0 W/m 16,1 km/h (3 Bft) 97,83 %
07.08.2023 02:38 12,8 C 12,2 C 8,9 C 97 % 1012,8 hPa 0,0 l/m 0 min 2 min 0 W/m 16,1 km/h (3 Bft) 100,00 %
07.08.2023 02:40 12,8 C 12,2 C 8,9 C 97 % 1012,8 hPa 0,0 l/m 0 min 2 min 0 W/m 19,3 km/h (3 Bft) 100,00 %
07.08.2023 02:42 12,8 C 12,2 C 8,9 C 97 % 1012,8 hPa 0,0 l/m 0 min 2 min 0 W/m 38,6 km/h (5 Bft) 100,00 %
07.08.2023 02:44 12,7 C 12,2 C 8,9 C 97 % 1012,8 hPa 0,0 l/m 0 min 2 min 0 W/m 16,1 km/h (3 Bft) 95,74 %
07.08.2023 02:46 12,7 C 12,2 C 8,9 C 97 % 1012,7 hPa 0,0 l/m 0 min 2 min 0 W/m 22,5 km/h (4 Bft) 97,87 %
07.08.2023 02:48 12,7 C 12,2 C 8,9 C 97 % 1012,7 hPa 0,0 l/m 0 min 0 min 0 W/m 35,4 km/h (5 Bft) 97,87 %
07.08.2023 02:50 12,7 C 12,2 C 8,9 C 97 % 1012,8 hPa 0,0 l/m 0 min 0 min 0 W/m 19,3 km/h (3 Bft) 97,83 %
07.08.2023 02:52 12,7 C 12,2 C 8,9 C 97 % 1012,8 hPa 0,0 l/m 0 min 0 min 0 W/m 19,3 km/h (3 Bft) 95,74 %
07.08.2023 02:54 12,7 C 12,2 C 8,9 C 97 % 1012,8 hPa 0,0 l/m 0 min 0 min 0 W/m 12,9 km/h (3 Bft) 97,14 %
07.08.2023 02:56 12,7 C 12,2 C 8,9 C 97 % 1012,8 hPa 0,0 l/m 0 min 0 min 0 W/m 16,1 km/h (3 Bft) 96,00 %
07.08.2023 02:58 12,7 C 12,2 C 8,9 C 97 % 1012,8 hPa 0,0 l/m 0 min 0 min 0 W/m 19,3 km/h (3 Bft) 97,87 %
07.08.2023 03:00 12,7 C 12,2 C 8,9 C 97 % 1012,9 hPa 0,0 l/m 0 min 0 min 0 W/m 19,3 km/h (3 Bft) 97,87 %
07.08.2023 03:02 12,7 C 12,2 C 8,9 C 97 % 1012,8 hPa 0,0 l/m 0 min 0 min 0 W/m 16,1 km/h (3 Bft) 95,74 %
07.08.2023 03:04 12,7 C 12,2 C 8,9 C 97 % 1012,8 hPa 0,0 l/m 0 min 0 min 0 W/m 22,5 km/h (4 Bft) 94,00 %
07.08.2023 03:06 12,7 C 12,2 C 8,9 C 97 % 1012,9 hPa 0,0 l/m 0 min 0 min 0 W/m 12,9 km/h (3 Bft) 96,55 %
07.08.2023 03:08 12,7 C 12,2 C 8,9 C 97 % 1012,8 hPa 0,0 l/m 0 min 0 min 0 W/m 12,9 km/h (3 Bft) 100,00 %
07.08.2023 03:10 12,7 C 12,2 C 8,9 C 97 % 1012,8 hPa 0,0 l/m 0 min 0 min 0 W/m 22,5 km/h (4 Bft) 97,83 %
07.08.2023 03:12 12,7 C 12,2 C 8,9 C 97 % 1012,8 hPa 0,0 l/m 0 min 0 min 0 W/m 16,1 km/h (3 Bft) 95,74 %
07.08.2023 03:14 12,7 C 12,2 C 8,9 C 97 % 1012,9 hPa 0,0 l/m 0 min 0 min 0 W/m 22,5 km/h (4 Bft) 97,87 %
07.08.2023 03:16 12,7 C 12,2 C 8,9 C 97 % 1012,9 hPa 0,0 l/m 0 min 0 min 0 W/m 35,4 km/h (5 Bft) 97,87 %
07.08.2023 03:18 12,7 C 12,2 C 8,9 C 97 % 1012,9 hPa 0,0 l/m 0 min 0 min 0 W/m 16,1 km/h (3 Bft) 97,87 %
07.08.2023 03:20 12,7 C 12,2 C 8,9 C 97 % 1012,9 hPa 0,0 l/m 0 min 0 min 0 W/m 29,0 km/h (5 Bft) 97,87 %
07.08.2023 03:22 12,7 C 12,2 C 8,9 C 97 % 1012,9 hPa 0,0 l/m 0 min 0 min 0 W/m 22,5 km/h (4 Bft) 100,00 %
07.08.2023 03:24 12,7 C 12,2 C 8,9 C 97 % 1012,9 hPa 0,0 l/m 0 min 2 min 0 W/m 16,1 km/h (3 Bft) 97,83 %
07.08.2023 03:26 12,7 C 12,2 C 8,9 C 97 % 1012,9 hPa 0,0 l/m 0 min 2 min 0 W/m 19,3 km/h (3 Bft) 100,00 %
07.08.2023 03:28 12,8 C 12,2 C 8,9 C 97 % 1013,0 hPa 0,0 l/m 0 min 0 min 0 W/m 19,3 km/h (3 Bft) 97,87 %
07.08.2023 03:30 12,8 C 12,2 C 8,9 C 97 % 1013,0 hPa 0,0 l/m 0 min 0 min 0 W/m 22,5 km/h (4 Bft) 100,00 %
07.08.2023 03:32 12,8 C 12,2 C 8,9 C 97 % 1013,0 hPa 0,0 l/m 0 min 2 min 0 W/m 16,1 km/h (3 Bft) 100,00 %
07.08.2023 03:34 12,8 C 12,2 C 8,9 C 97 % 1013,0 hPa 0,0 l/m 0 min 2 min 0 W/m 25,7 km/h (4 Bft) 97,87 %
07.08.2023 03:36 12,8 C 12,2 C 8,9 C 97 % 1013,0 hPa 0,0 l/m 0 min 2 min 0 W/m 16,1 km/h (3 Bft) 100,00 %
07.08.2023 03:38 12,8 C 12,2 C 8,9 C 97 % 1013,0 hPa 0,0 l/m 0 min 2 min 0 W/m 16,1 km/h (3 Bft) 97,83 %
07.08.2023 03:40 12,8 C 12,2 C 8,9 C 97 % 1013,0 hPa 0,0 l/m 0 min 2 min 0 W/m 16,1 km/h (3 Bft) 95,74 %
07.08.2023 03:42 12,8 C 12,2 C 8,9 C 97 % 1013,0 hPa 0,0 l/m 0 min 2 min 0 W/m 12,9 km/h (3 Bft) 97,87 %
07.08.2023 03:44 12,8 C 12,2 C 8,9 C 97 % 1013,0 hPa 0,0 l/m 0 min 2 min 0 W/m 12,9 km/h (3 Bft) 97,87 %
07.08.2023 03:46 12,8 C 12,2 C 8,9 C 97 % 1013,1 hPa 0,2 l/m 0 min 2 min 0 W/m 22,5 km/h (4 Bft) 97,87 %
07.08.2023 03:48 12,8 C 12,2 C 8,9 C 97 % 1013,0 hPa 0,0 l/m 0 min 2 min 0 W/m 35,4 km/h (5 Bft) 95,74 %
07.08.2023 03:50 12,8 C 12,2 C 8,9 C 97 % 1013,0 hPa 0,0 l/m 0 min 2 min 0 W/m 19,3 km/h (3 Bft) 97,87 %
07.08.2023 03:52 12,7 C 12,2 C 8,9 C 97 % 1013,0 hPa 0,0 l/m 0 min 2 min 0 W/m 35,4 km/h (5 Bft) 97,83 %
07.08.2023 03:54 12,7 C 11,7 C 8,9 C 97 % 1012,9 hPa 0,2 l/m 0 min 2 min 0 W/m 19,3 km/h (3 Bft) 97,87 %
07.08.2023 03:56 12,7 C 11,7 C 8,9 C 97 % 1013,0 hPa 0,0 l/m 0 min 2 min 0 W/m 22,5 km/h (4 Bft) 97,87 %
07.08.2023 03:58 12,7 C 11,7 C 8,9 C 97 % 1013,0 hPa 0,2 l/m 0 min 2 min 0 W/m 19,3 km/h (3 Bft) 97,87 %
07.08.2023 04:00 12,6 C 11,7 C 8,9 C 97 % 1013,0 hPa 0,0 l/m 0 min 2 min 0 W/m 22,5 km/h (4 Bft) 97,87 %
07.08.2023 04:02 12,6 C 11,7 C 8,9 C 97 % 1013,0 hPa 0,2 l/m 0 min 2 min 0 W/m 19,3 km/h (3 Bft) 100,00 %
07.08.2023 04:04 12,6 C 11,7 C 8,9 C 97 % 1013,0 hPa 0,0 l/m 0 min 2 min 0 W/m 19,3 km/h (3 Bft) 100,00 %
07.08.2023 04:06 12,6 C 11,7 C 8,9 C 97 % 1013,0 hPa 0,0 l/m 0 min 2 min 0 W/m 22,5 km/h (4 Bft) 97,92 %
07.08.2023 04:08 12,6 C 11,7 C 8,9 C 97 % 1013,0 hPa 0,2 l/m 0 min 2 min 0 W/m 22,5 km/h (4 Bft) 97,06 %
07.08.2023 04:10 12,6 C 11,7 C 8,9 C 97 % 1013,0 hPa 0,0 l/m 0 min 2 min 0 W/m 16,1 km/h (3 Bft) 97,87 %
07.08.2023 04:12 12,6 C 11,7 C 8,9 C 97 % 1013,1 hPa 0,0 l/m 0 min 2 min 0 W/m 12,9 km/h (3 Bft) 97,87 %
07.08.2023 04:14 12,6 C 11,7 C 8,9 C 97 % 1013,1 hPa 0,0 l/m 0 min 2 min 0 W/m 19,3 km/h (3 Bft) 97,87 %
07.08.2023 04:16 12,6 C 11,7 C 8,9 C 97 % 1013,1 hPa 0,2 l/m 0 min 2 min 0 W/m 22,5 km/h (4 Bft) 97,83 %
07.08.2023 04:18 12,5 C 11,7 C 8,9 C 97 % 1013,2 hPa 0,2 l/m 0 min 2 min 0 W/m 19,3 km/h (3 Bft) 97,87 %
07.08.2023 04:20 12,5 C 11,7 C 8,9 C 97 % 1013,2 hPa 0,0 l/m 0 min 2 min 0 W/m 16,1 km/h (3 Bft) 97,87 %
07.08.2023 04:22 12,5 C 11,7 C 8,9 C 97 % 1013,1 hPa 0,2 l/m 0 min 2 min 0 W/m 29,0 km/h (5 Bft) 95,74 %
07.08.2023 04:24 12,5 C 11,7 C 8,9 C 97 % 1013,2 hPa 0,0 l/m 0 min 2 min 0 W/m 22,5 km/h (4 Bft) 93,62 %
07.08.2023 04:26 12,5 C 11,7 C 8,9 C 97 % 1013,2 hPa 0,2 l/m 0 min 2 min 0 W/m 22,5 km/h (4 Bft) 95,74 %
07.08.2023 04:28 12,5 C 11,7 C 8,9 C 97 % 1013,2 hPa 0,0 l/m 0 min 2 min 0 W/m 16,1 km/h (3 Bft) 97,87 %
07.08.2023 04:30 12,5 C 11,7 C 8,9 C 97 % 1013,2 hPa 0,0 l/m 0 min 2 min 0 W/m 19,3 km/h (3 Bft) 97,83 %
07.08.2023 04:32 12,4 C 11,7 C 8,9 C 97 % 1013,1 hPa 0,2 l/m 0 min 2 min 0 W/m 12,9 km/h (3 Bft) 97,87 %
07.08.2023 04:34 12,4 C 11,7 C 8,9 C 97 % 1013,2 hPa 0,0 l/m 0 min 2 min 0 W/m 16,1 km/h (3 Bft) 97,87 %
07.08.2023 04:36 12,4 C 11,7 C 8,9 C 97 % 1013,2 hPa 0,0 l/m 0 min 0 min 0 W/m 25,7 km/h (4 Bft) 97,87 %
07.08.2023 04:38 12,4 C 11,7 C 8,9 C 97 % 1013,2 hPa 0,0 l/m 0 min 0 min 0 W/m 16,1 km/h (3 Bft) 97,87 %
07.08.2023 04:40 12,4 C 11,7 C 8,9 C 97 % 1013,2 hPa 0,0 l/m 0 min 0 min 0 W/m 19,3 km/h (3 Bft) 93,62 %
07.08.2023 04:42 12,4 C 11,7 C 8,9 C 97 % 1013,2 hPa 0,0 l/m 0 min 0 min 0 W/m 16,1 km/h (3 Bft) 93,62 %
07.08.2023 04:44 12,4 C 11,7 C 8,9 C 97 % 1013,3 hPa 0,0 l/m 0 min 2 min 0 W/m 19,3 km/h (3 Bft) 97,83 %
07.08.2023 04:46 12,4 C 11,7 C 8,9 C 97 % 1013,3 hPa 0,0 l/m 0 min 2 min 0 W/m 22,5 km/h (4 Bft) 97,92 %
07.08.2023 04:48 12,4 C 11,7 C 8,9 C 98 % 1013,2 hPa 0,0 l/m 0 min 2 min 0 W/m 16,1 km/h (3 Bft) 97,87 %
07.08.2023 04:50 12,4 C 11,7 C 8,9 C 98 % 1013,3 hPa 0,0 l/m 0 min 2 min 0 W/m 19,3 km/h (3 Bft) 97,87 %
07.08.2023 04:52 12,4 C 11,7 C 8,9 C 98 % 1013,2 hPa 0,0 l/m 0 min 2 min 0 W/m 12,9 km/h (3 Bft) 97,87 %
07.08.2023 04:54 12,4 C 11,7 C 8,9 C 98 % 1013,2 hPa 0,0 l/m 0 min 2 min 0 W/m 16,1 km/h (3 Bft) 97,87 %
07.08.2023 04:56 12,4 C 11,7 C 8,9 C 98 % 1013,3 hPa 0,0 l/m 0 min 0 min 0 W/m 12,9 km/h (3 Bft) 97,87 %
07.08.2023 04:58 12,5 C 11,7 C 8,9 C 98 % 1013,2 hPa 0,0 l/m 0 min 2 min 0 W/m 22,5 km/h (4 Bft) 97,87 %
07.08.2023 05:00 12,4 C 11,7 C 8,9 C 98 % 1013,3 hPa 0,0 l/m 0 min 2 min 0 W/m 16,1 km/h (3 Bft) 100,00 %
07.08.2023 05:02 12,4 C 11,7 C 8,9 C 98 % 1013,3 hPa 0,0 l/m 0 min 2 min 0 W/m 25,7 km/h (4 Bft) 97,87 %
07.08.2023 05:04 12,4 C 11,7 C 8,9 C 98 % 1013,3 hPa 0,0 l/m 0 min 2 min 0 W/m 16,1 km/h (3 Bft) 100,00 %
07.08.2023 05:06 12,4 C 11,7 C 8,9 C 98 % 1013,3 hPa 0,0 l/m 0 min 2 min 0 W/m 19,3 km/h (3 Bft) 100,00 %
07.08.2023 05:08 12,4 C 11,7 C 8,9 C 98 % 1013,3 hPa 0,0 l/m 0 min 2 min 0 W/m 19,3 km/h (3 Bft) 97,87 %
07.08.2023 05:10 12,4 C 11,7 C 8,9 C 98 % 1013,4 hPa 0,0 l/m 0 min 2 min 0 W/m 16,1 km/h (3 Bft) 100,00 %
07.08.2023 05:12 12,4 C 11,7 C 8,9 C 98 % 1013,3 hPa 0,0 l/m 0 min 2 min 0 W/m 16,1 km/h (3 Bft) 97,87 %
07.08.2023 05:14 12,4 C 11,7 C 8,9 C 98 % 1013,4 hPa 0,0 l/m 0 min 2 min 0 W/m 12,9 km/h (3 Bft) 100,00 %
07.08.2023 05:16 12,4 C 11,7 C 8,9 C 98 % 1013,4 hPa 0,0 l/m 0 min 2 min 0 W/m 19,3 km/h (3 Bft) 98,28 %
07.08.2023 05:18 12,4 C 11,7 C 8,9 C 98 % 1013,4 hPa 0,0 l/m 0 min 2 min 0 W/m 22,5 km/h (4 Bft) 97,14 %
07.08.2023 05:20 12,4 C 11,7 C 8,9 C 98 % 1013,4 hPa 0,0 l/m 0 min 2 min 0 W/m 12,9 km/h (3 Bft) 93,62 %
07.08.2023 05:22 12,4 C 11,7 C 8,9 C 98 % 1013,4 hPa 0,0 l/m 0 min 2 min 0 W/m 16,1 km/h (3 Bft) 96,08 %
07.08.2023 05:24 12,4 C 11,7 C 8,9 C 98 % 1013,3 hPa 0,0 l/m 0 min 2 min 0 W/m 16,1 km/h (3 Bft) 97,87 %
07.08.2023 05:26 12,4 C 11,7 C 8,9 C 98 % 1013,4 hPa 0,0 l/m 0 min 2 min 0 W/m 12,9 km/h (3 Bft) 97,87 %
07.08.2023 05:28 12,3 C 11,7 C 8,9 C 97 % 1013,3 hPa 0,0 l/m 0 min 2 min 0 W/m 16,1 km/h (3 Bft) 93,62 %
07.08.2023 05:30 12,3 C 11,7 C 8,9 C 97 % 1013,3 hPa 0,0 l/m 0 min 2 min 0 W/m 12,9 km/h (3 Bft) 95,74 %
07.08.2023 05:32 12,3 C 11,7 C 8,9 C 98 % 1013,3 hPa 0,0 l/m 0 min 2 min 0 W/m 16,1 km/h (3 Bft) 95,74 %
07.08.2023 05:34 12,3 C 11,7 C 8,9 C 97 % 1013,2 hPa 0,0 l/m 0 min 2 min 0 W/m 12,9 km/h (3 Bft) 95,65 %
07.08.2023 05:36 12,3 C 11,7 C 8,9 C 97 % 1013,3 hPa 0,0 l/m 0 min 2 min 0 W/m 19,3 km/h (3 Bft) 95,74 %
07.08.2023 05:38 12,3 C 11,7 C 8,3 C 97 % 1013,3 hPa 0,0 l/m 0 min 2 min 0 W/m 16,1 km/h (3 Bft) 93,62 %
07.08.2023 05:40 12,3 C 11,7 C 8,9 C 97 % 1013,3 hPa 0,0 l/m 0 min 0 min 0 W/m 12,9 km/h (3 Bft) 95,74 %
07.08.2023 05:42 12,3 C 11,7 C 8,9 C 97 % 1013,3 hPa 0,0 l/m 0 min 2 min 0 W/m 22,5 km/h (4 Bft) 95,74 %
07.08.2023 05:44 12,3 C 11,7 C 8,9 C 97 % 1013,4 hPa 0,0 l/m 0 min 0 min 0 W/m 16,1 km/h (3 Bft) 95,74 %
07.08.2023 05:46 12,3 C 11,7 C 8,9 C 97 % 1013,3 hPa 0,0 l/m 0 min 2 min 0 W/m 16,1 km/h (3 Bft) 95,74 %
07.08.2023 05:48 12,3 C 11,7 C 8,9 C 97 % 1013,3 hPa 0,0 l/m 0 min 2 min 0 W/m 19,3 km/h (3 Bft) 95,65 %
07.08.2023 05:50 12,3 C 11,7 C 8,9 C 97 % 1013,3 hPa 0,0 l/m 0 min 0 min 0 W/m 9,7 km/h (2 Bft) 95,74 %
07.08.2023 05:52 12,3 C 11,7 C 8,9 C 97 % 1013,3 hPa 0,0 l/m 0 min 0 min 0 W/m 16,1 km/h (3 Bft) 93,62 %
07.08.2023 05:54 12,3 C 11,7 C 8,3 C 97 % 1013,3 hPa 0,0 l/m 0 min 0 min 0 W/m 19,3 km/h (3 Bft) 95,74 %
07.08.2023 05:56 12,3 C 11,7 C 8,9 C 97 % 1013,3 hPa 0,0 l/m 0 min 0 min 0 W/m 16,1 km/h (3 Bft) 89,36 %
07.08.2023 05:58 12,3 C 11,7 C 8,9 C 97 % 1013,3 hPa 0,0 l/m 0 min 0 min 0 W/m 16,1 km/h (3 Bft) 100,00 %
07.08.2023 06:00 12,3 C 11,7 C 8,9 C 97 % 1013,4 hPa 0,0 l/m 0 min 0 min 0 W/m 16,1 km/h (3 Bft) 100,00 %
07.08.2023 06:02 12,3 C 11,7 C 8,9 C 97 % 1013,4 hPa 0,0 l/m 0 min 0 min 0 W/m 9,7 km/h (2 Bft) 100,00 %
07.08.2023 06:04 12,3 C 11,7 C 8,9 C 97 % 1013,5 hPa 0,0 l/m 0 min 0 min 0 W/m 22,5 km/h (4 Bft) 100,00 %
07.08.2023 06:07 12,3 C 11,7 C 8,9 C 97 % 1013,4 hPa 0,0 l/m 0 min 0 min 0 W/m 12,9 km/h (3 Bft) 100,00 %
07.08.2023 06:08 12,3 C 11,7 C 8,9 C 97 % 1013,4 hPa 0,0 l/m 0 min 0 min 0 W/m 12,9 km/h (3 Bft) 98,95 %
07.08.2023 06:12 12,3 C 11,7 C 8,9 C 97 % 1013,5 hPa 0,0 l/m 0 min 0 min 0 W/m 19,3 km/h (3 Bft) 100,00 %
07.08.2023 06:14 12,4 C 11,7 C 8,9 C 97 % 1013,5 hPa 0,0 l/m 0 min 0 min 0 W/m 16,1 km/h (3 Bft) 95,74 %
07.08.2023 06:16 12,4 C 11,7 C 8,9 C 97 % 1013,4 hPa 0,0 l/m 0 min 0 min 0 W/m 12,9 km/h (3 Bft) 97,87 %
07.08.2023 06:18 12,4 C 11,7 C 8,9 C 98 % 1013,3 hPa 0,0 l/m 0 min 0 min 0 W/m 19,3 km/h (3 Bft) 100,00 %
07.08.2023 06:20 12,4 C 11,7 C 8,9 C 97 % 1013,4 hPa 0,0 l/m 0 min 0 min 0 W/m 16,1 km/h (3 Bft) 100,00 %
07.08.2023 06:22 12,4 C 11,7 C 8,9 C 98 % 1013,4 hPa 0,0 l/m 0 min 0 min 0 W/m 22,5 km/h (4 Bft) 100,00 %
07.08.2023 06:24 12,4 C 11,7 C 8,9 C 98 % 1013,4 hPa 0,0 l/m 0 min 0 min 0 W/m 12,9 km/h (3 Bft) 97,87 %
07.08.2023 06:26 12,4 C 11,7 C 8,9 C 98 % 1013,4 hPa 0,0 l/m 0 min 0 min 0 W/m 16,1 km/h (3 Bft) 100,00 %
07.08.2023 06:28 12,4 C 11,7 C 8,9 C 98 % 1013,4 hPa 0,0 l/m 0 min 0 min 0 W/m 12,9 km/h (3 Bft) 100,00 %
07.08.2023 06:30 12,4 C 11,7 C 8,9 C 98 % 1013,4 hPa 0,0 l/m 0 min 0 min 0 W/m 22,5 km/h (4 Bft) 97,87 %
07.08.2023 06:32 12,4 C 11,7 C 8,9 C 98 % 1013,4 hPa 0,0 l/m 0 min 0 min 5 W/m 12,9 km/h (3 Bft) 100,00 %
07.08.2023 06:34 12,4 C 11,7 C 8,9 C 98 % 1013,5 hPa 0,0 l/m 0 min 0 min 7 W/m 12,9 km/h (3 Bft) 100,00 %
07.08.2023 06:36 12,4 C 11,7 C 8,9 C 98 % 1013,4 hPa 0,0 l/m 0 min 0 min 7 W/m 12,9 km/h (3 Bft) 100,00 %
07.08.2023 06:38 12,4 C 11,7 C 8,9 C 98 % 1013,4 hPa 0,0 l/m 0 min 0 min 8 W/m 19,3 km/h (3 Bft) 100,00 %
07.08.2023 06:40 12,4 C 11,7 C 8,9 C 98 % 1013,4 hPa 0,0 l/m 0 min 0 min 8 W/m 19,3 km/h (3 Bft) 100,00 %
07.08.2023 06:42 12,4 C 11,7 C 8,9 C 98 % 1013,4 hPa 0,0 l/m 0 min 0 min 7 W/m 12,9 km/h (3 Bft) 97,87 %
07.08.2023 06:44 12,4 C 11,7 C 8,9 C 98 % 1013,5 hPa 0,0 l/m 0 min 0 min 7 W/m 22,5 km/h (4 Bft) 97,87 %
07.08.2023 06:46 12,4 C 11,7 C 8,9 C 98 % 1013,5 hPa 0,0 l/m 0 min 0 min 6 W/m 16,1 km/h (3 Bft) 97,83 %
07.08.2023 06:48 12,4 C 11,7 C 8,9 C 98 % 1013,5 hPa 0,0 l/m 0 min 0 min 7 W/m 22,5 km/h (4 Bft) 100,00 %
07.08.2023 06:50 12,4 C 11,7 C 8,9 C 97 % 1013,5 hPa 0,0 l/m 0 min 0 min 7 W/m 19,3 km/h (3 Bft) 100,00 %
07.08.2023 06:52 12,4 C 11,7 C 8,9 C 97 % 1013,4 hPa 0,0 l/m 0 min 0 min 7 W/m 12,9 km/h (3 Bft) 100,00 %
07.08.2023 06:54 12,4 C 11,7 C 8,9 C 97 % 1013,5 hPa 0,0 l/m 0 min 0 min 7 W/m 12,9 km/h (3 Bft) 97,87 %
07.08.2023 06:56 12,4 C 12,2 C 8,9 C 97 % 1013,5 hPa 0,0 l/m 0 min 0 min 8 W/m 16,1 km/h (3 Bft) 100,00 %
07.08.2023 06:58 12,4 C 12,2 C 8,9 C 97 % 1013,5 hPa 0,0 l/m 0 min 0 min 11 W/m 12,9 km/h (3 Bft) 100,00 %
07.08.2023 07:00 12,4 C 12,2 C 8,9 C 97 % 1013,5 hPa 0,0 l/m 0 min 0 min 13 W/m 16,1 km/h (3 Bft) 97,83 %
07.08.2023 07:02 12,4 C 12,2 C 8,9 C 97 % 1013,5 hPa 0,0 l/m 0 min 2 min 14 W/m 19,3 km/h (3 Bft) 100,00 %
07.08.2023 07:04 12,4 C 12,2 C 8,9 C 97 % 1013,5 hPa 0,0 l/m 0 min 0 min 14 W/m 12,9 km/h (3 Bft) 100,00 %
07.08.2023 07:06 12,4 C 12,2 C 8,9 C 97 % 1013,5 hPa 0,0 l/m 0 min 2 min 13 W/m 12,9 km/h (3 Bft) 98,31 %
07.08.2023 07:08 12,4 C 12,2 C 8,9 C 97 % 1013,6 hPa 0,0 l/m 0 min 2 min 14 W/m 16,1 km/h (3 Bft) 100,00 %
07.08.2023 07:10 12,4 C 12,2 C 8,9 C 97 % 1013,6 hPa 0,0 l/m 0 min 2 min 15 W/m 16,1 km/h (3 Bft) 97,87 %
07.08.2023 07:12 12,5 C 12,2 C 8,9 C 97 % 1013,5 hPa 0,0 l/m 0 min 2 min 16 W/m 12,9 km/h (3 Bft) 97,87 %
07.08.2023 07:14 12,5 C 12,2 C 8,9 C 97 % 1013,6 hPa 0,0 l/m 0 min 2 min 14 W/m 12,9 km/h (3 Bft) 95,65 %
07.08.2023 07:16 12,5 C 12,2 C 8,9 C 97 % 1013,5 hPa 0,0 l/m 0 min 2 min 13 W/m 16,1 km/h (3 Bft) 97,87 %
07.08.2023 07:18 12,5 C 12,2 C 8,9 C 97 % 1013,5 hPa 0,0 l/m 0 min 0 min 12 W/m 12,9 km/h (3 Bft) 97,83 %
07.08.2023 07:20 12,5 C 12,2 C 8,9 C 97 % 1013,5 hPa 0,0 l/m 0 min 0 min 13 W/m 16,1 km/h (3 Bft) 91,49 %
07.08.2023 07:22 12,6 C 12,2 C 8,9 C 97 % 1013,5 hPa 0,0 l/m 0 min 0 min 14 W/m 19,3 km/h (3 Bft) 93,62 %
07.08.2023 07:24 12,6 C 12,2 C 8,9 C 97 % 1013,6 hPa 0,0 l/m 0 min 0 min 15 W/m 12,9 km/h (3 Bft) 95,74 %
07.08.2023 07:26 12,6 C 12,2 C 8,9 C 97 % 1013,6 hPa 0,0 l/m 0 min 2 min 15 W/m 12,9 km/h (3 Bft) 95,65 %
07.08.2023 07:28 12,6 C 12,2 C 8,9 C 97 % 1013,6 hPa 0,0 l/m 0 min 2 min 14 W/m 19,3 km/h (3 Bft) 95,74 %
07.08.2023 07:30 12,6 C 12,2 C 8,9 C 97 % 1013,7 hPa 0,0 l/m 0 min 2 min 14 W/m 12,9 km/h (3 Bft) 93,62 %
07.08.2023 07:32 12,6 C 12,2 C 8,9 C 97 % 1013,6 hPa 0,0 l/m 0 min 0 min 18 W/m 16,1 km/h (3 Bft) 95,74 %
07.08.2023 07:34 12,6 C 12,2 C 8,9 C 97 % 1013,6 hPa 0,2 l/m 0 min 2 min 23 W/m 12,9 km/h (3 Bft) 95,74 %
07.08.2023 07:36 12,6 C 12,2 C 8,9 C 97 % 1013,6 hPa 0,0 l/m 0 min 2 min 27 W/m 16,1 km/h (3 Bft) 91,49 %
07.08.2023 07:38 12,6 C 12,2 C 8,9 C 97 % 1013,6 hPa 0,0 l/m 0 min 2 min 27 W/m 16,1 km/h (3 Bft) 95,74 %
07.08.2023 07:40 12,6 C 12,2 C 8,9 C 97 % 1013,6 hPa 0,0 l/m 0 min 2 min 29 W/m 19,3 km/h (3 Bft) 93,62 %
07.08.2023 07:42 12,6 C 12,2 C 8,9 C 97 % 1013,6 hPa 0,0 l/m 0 min 2 min 26 W/m 12,9 km/h (3 Bft) 93,48 %
07.08.2023 07:44 12,6 C 12,2 C 8,9 C 97 % 1013,6 hPa 0,0 l/m 0 min 2 min 25 W/m 16,1 km/h (3 Bft) 91,49 %
07.08.2023 07:46 12,6 C 12,2 C 8,9 C 97 % 1013,7 hPa 0,0 l/m 0 min 0 min 25 W/m 12,9 km/h (3 Bft) 93,62 %
07.08.2023 07:48 12,6 C 12,2 C 8,9 C 97 % 1013,7 hPa 0,0 l/m 0 min 0 min 21 W/m 12,9 km/h (3 Bft) 93,62 %
07.08.2023 07:50 12,6 C 12,2 C 8,9 C 97 % 1013,8 hPa 0,0 l/m 0 min 0 min 18 W/m 25,7 km/h (4 Bft) 93,62 %
07.08.2023 07:52 12,6 C 12,2 C 8,9 C 97 % 1013,8 hPa 0,0 l/m 0 min 0 min 20 W/m 12,9 km/h (3 Bft) 95,74 %
07.08.2023 07:54 12,6 C 12,2 C 8,9 C 97 % 1013,9 hPa 0,0 l/m 0 min 2 min 24 W/m 19,3 km/h (3 Bft) 93,62 %
07.08.2023 07:56 12,6 C 12,2 C 8,9 C 97 % 1013,9 hPa 0,0 l/m 0 min 2 min 28 W/m 16,1 km/h (3 Bft) 97,87 %
07.08.2023 07:58 12,6 C 12,2 C 8,9 C 97 % 1013,9 hPa 0,0 l/m 0 min 2 min 32 W/m 12,9 km/h (3 Bft) 95,65 %
07.08.2023 08:00 12,6 C 12,2 C 8,9 C 97 % 1014,2 hPa 0,0 l/m 0 min 2 min 33 W/m 25,7 km/h (4 Bft) 94,74 %
07.08.2023 08:02 12,6 C 12,2 C 8,9 C 97 % 1013,9 hPa 0,0 l/m 0 min 2 min 35 W/m 9,7 km/h (2 Bft) 97,87 %
07.08.2023 08:04 12,6 C 12,2 C 8,9 C 97 % 1013,9 hPa 0,0 l/m 0 min 2 min 39 W/m 12,9 km/h (3 Bft) 97,96 %
07.08.2023 08:06 12,6 C 12,2 C 8,9 C 97 % 1014,0 hPa 0,0 l/m 0 min 2 min 39 W/m 16,1 km/h (3 Bft) 98,31 %
07.08.2023 08:08 12,6 C 12,2 C 8,9 C 97 % 1014,0 hPa 0,0 l/m 0 min 0 min 41 W/m 19,3 km/h (3 Bft) 94,29 %
07.08.2023 08:10 12,6 C 12,2 C 8,9 C 97 % 1014,0 hPa 0,0 l/m 0 min 0 min 49 W/m 16,1 km/h (3 Bft) 97,87 %
07.08.2023 08:12 12,6 C 12,2 C 8,9 C 97 % 1013,9 hPa 0,2 l/m 0 min 0 min 58 W/m 16,1 km/h (3 Bft) 95,65 %
07.08.2023 08:14 12,6 C 12,2 C 8,9 C 97 % 1014,0 hPa 0,0 l/m 0 min 0 min 59 W/m 22,5 km/h (4 Bft) 95,74 %
07.08.2023 08:16 12,6 C 12,2 C 8,9 C 97 % 1014,1 hPa 0,0 l/m 0 min 0 min 55 W/m 19,3 km/h (3 Bft) 93,62 %
07.08.2023 08:18 12,6 C 12,2 C 8,9 C 97 % 1014,1 hPa 0,0 l/m 0 min 0 min 52 W/m 16,1 km/h (3 Bft) 97,87 %
07.08.2023 08:20 12,6 C 12,2 C 8,9 C 97 % 1014,1 hPa 0,0 l/m 0 min 0 min 58 W/m 16,1 km/h (3 Bft) 97,87 %
07.08.2023 08:22 12,6 C 12,2 C 8,9 C 97 % 1014,1 hPa 0,0 l/m 0 min 0 min 47 W/m 22,5 km/h (4 Bft) 97,87 %
07.08.2023 08:24 12,6 C 11,7 C 8,9 C 97 % 1014,2 hPa 0,0 l/m 0 min 0 min 30 W/m 29,0 km/h (5 Bft) 97,87 %
07.08.2023 08:26 12,6 C 11,7 C 8,9 C 97 % 1014,2 hPa 0,0 l/m 0 min 0 min 33 W/m 25,7 km/h (4 Bft) 97,83 %
07.08.2023 08:28 12,6 C 11,7 C 8,9 C 97 % 1014,2 hPa 0,0 l/m 0 min 0 min 37 W/m 12,9 km/h (3 Bft) 100,00 %
07.08.2023 08:30 12,6 C 11,7 C 8,9 C 97 % 1014,1 hPa 0,0 l/m 0 min 0 min 38 W/m 16,1 km/h (3 Bft) 100,00 %
07.08.2023 08:32 12,5 C 11,7 C 8,9 C 98 % 1014,2 hPa 0,0 l/m 0 min 2 min 30 W/m 22,5 km/h (4 Bft) 100,00 %
07.08.2023 08:34 12,5 C 11,7 C 8,9 C 98 % 1014,2 hPa 0,0 l/m 0 min 0 min 28 W/m 48,3 km/h (6 Bft) 100,00 %
07.08.2023 08:36 12,5 C 11,7 C 8,9 C 98 % 1014,2 hPa 0,0 l/m 0 min 0 min 32 W/m 29,0 km/h (5 Bft) 100,00 %
07.08.2023 08:38 12,4 C 11,7 C 8,9 C 98 % 1014,2 hPa 0,0 l/m 0 min 0 min 34 W/m 25,7 km/h (4 Bft) 97,87 %
07.08.2023 08:40 12,5 C 11,7 C 8,9 C 98 % 1014,3 hPa 0,2 l/m 0 min 0 min 35 W/m 16,1 km/h (3 Bft) 100,00 %
07.08.2023 08:42 12,4 C 11,7 C 8,9 C 98 % 1014,3 hPa 0,0 l/m 0 min 0 min 38 W/m 22,5 km/h (4 Bft) 100,00 %
07.08.2023 08:44 12,4 C 11,7 C 8,9 C 98 % 1014,3 hPa 0,0 l/m 0 min 0 min 37 W/m 22,5 km/h (4 Bft) 100,00 %
07.08.2023 08:46 12,4 C 11,7 C 8,9 C 98 % 1014,4 hPa 0,0 l/m 0 min 0 min 43 W/m 25,7 km/h (4 Bft) 100,00 %
07.08.2023 08:48 12,4 C 11,7 C 8,9 C 98 % 1014,5 hPa 0,0 l/m 0 min 0 min 49 W/m 35,4 km/h (5 Bft) 100,00 %
07.08.2023 08:50 12,4 C 11,7 C 8,9 C 98 % 1014,5 hPa 0,0 l/m 0 min 0 min 47 W/m 22,5 km/h (4 Bft) 100,00 %
07.08.2023 08:52 12,4 C 11,7 C 8,9 C 98 % 1014,3 hPa 0,0 l/m 0 min 0 min 46 W/m 22,5 km/h (4 Bft) 100,00 %
07.08.2023 08:54 12,4 C 11,7 C 8,9 C 98 % 1014,3 hPa 0,0 l/m 0 min 0 min 48 W/m 25,7 km/h (4 Bft) 100,00 %
07.08.2023 08:56 12,4 C 11,7 C 8,9 C 98 % 1014,4 hPa 0,0 l/m 0 min 0 min 52 W/m 19,3 km/h (3 Bft) 97,87 %
07.08.2023 08:58 12,4 C 11,7 C 8,9 C 98 % 1014,4 hPa 0,0 l/m 0 min 0 min 54 W/m 16,1 km/h (3 Bft) 100,00 %
07.08.2023 09:00 12,4 C 11,7 C 8,9 C 98 % 1014,4 hPa 0,0 l/m 0 min 0 min 52 W/m 12,9 km/h (3 Bft) 100,00 %
07.08.2023 09:02 12,4 C 11,7 C 8,9 C 98 % 1014,5 hPa 0,0 l/m 0 min 0 min 47 W/m 16,1 km/h (3 Bft) 100,00 %
07.08.2023 09:04 12,5 C 11,7 C 8,9 C 98 % 1014,5 hPa 0,0 l/m 0 min 0 min 47 W/m 19,3 km/h (3 Bft) 95,92 %
07.08.2023 09:06 12,4 C 11,7 C 8,9 C 98 % 1014,5 hPa 0,0 l/m 0 min 0 min 54 W/m 16,1 km/h (3 Bft) 98,28 %
07.08.2023 09:08 12,4 C 11,7 C 8,9 C 98 % 1014,5 hPa 0,0 l/m 0 min 0 min 59 W/m 19,3 km/h (3 Bft) 97,14 %
07.08.2023 09:10 12,5 C 11,7 C 8,9 C 98 % 1014,6 hPa 0,0 l/m 0 min 0 min 61 W/m 12,9 km/h (3 Bft) 97,87 %
07.08.2023 09:12 12,5 C 12,2 C 8,9 C 98 % 1014,5 hPa 0,0 l/m 0 min 0 min 77 W/m 22,5 km/h (4 Bft) 97,87 %
07.08.2023 09:14 12,5 C 12,2 C 8,9 C 98 % 1014,6 hPa 0,0 l/m 0 min 0 min 84 W/m 19,3 km/h (3 Bft) 97,87 %
07.08.2023 09:16 12,6 C 12,2 C 8,9 C 98 % 1014,6 hPa 0,0 l/m 0 min 0 min 83 W/m 19,3 km/h (3 Bft) 95,74 %
07.08.2023 09:18 12,5 C 12,2 C 8,9 C 98 % 1014,6 hPa 0,0 l/m 0 min 0 min 77 W/m 22,5 km/h (4 Bft) 97,87 %
07.08.2023 09:20 12,5 C 12,2 C 8,9 C 98 % 1014,7 hPa 0,0 l/m 0 min 0 min 59 W/m 16,1 km/h (3 Bft) 97,87 %
07.08.2023 09:22 12,5 C 12,2 C 8,9 C 98 % 1014,7 hPa 0,0 l/m 0 min 0 min 53 W/m 19,3 km/h (3 Bft) 97,83 %
07.08.2023 09:24 12,5 C 11,7 C 8,9 C 98 % 1014,8 hPa 0,0 l/m 0 min 0 min 52 W/m 16,1 km/h (3 Bft) 97,87 %
07.08.2023 09:26 12,5 C 11,7 C 8,9 C 98 % 1014,8 hPa 0,0 l/m 0 min 0 min 52 W/m 16,1 km/h (3 Bft) 95,74 %
07.08.2023 09:28 12,4 C 11,7 C 8,9 C 98 % 1014,8 hPa 0,0 l/m 0 min 0 min 49 W/m 19,3 km/h (3 Bft) 97,87 %
07.08.2023 09:30 12,5 C 11,7 C 8,9 C 98 % 1014,9 hPa 0,0 l/m 0 min 0 min 48 W/m 12,9 km/h (3 Bft) 97,87 %
07.08.2023 09:32 12,5 C 11,7 C 8,9 C 98 % 1014,9 hPa 0,0 l/m 0 min 2 min 56 W/m 19,3 km/h (3 Bft) 97,87 %
07.08.2023 09:34 12,5 C 12,2 C 8,9 C 98 % 1014,9 hPa 0,0 l/m 0 min 0 min 64 W/m 16,1 km/h (3 Bft) 97,83 %
07.08.2023 09:36 12,5 C 12,2 C 8,9 C 98 % 1015,0 hPa 0,0 l/m 0 min 0 min 68 W/m 19,3 km/h (3 Bft) 97,87 %
07.08.2023 09:38 12,5 C 12,2 C 8,9 C 98 % 1014,9 hPa 0,0 l/m 0 min 2 min 61 W/m 12,9 km/h (3 Bft) 97,87 %
07.08.2023 09:40 12,5 C 12,2 C 8,9 C 98 % 1014,9 hPa 0,2 l/m 0 min 0 min 61 W/m 16,1 km/h (3 Bft) 97,87 %
07.08.2023 09:42 12,5 C 12,2 C 8,9 C 98 % 1015,0 hPa 0,0 l/m 0 min 0 min 72 W/m 22,5 km/h (4 Bft) 100,00 %
07.08.2023 09:44 12,5 C 12,2 C 8,9 C 98 % 1015,0 hPa 0,0 l/m 0 min 0 min 77 W/m 19,3 km/h (3 Bft) 97,87 %
07.08.2023 09:46 12,6 C 12,2 C 8,9 C 98 % 1015,0 hPa 0,0 l/m 0 min 0 min 76 W/m 12,9 km/h (3 Bft) 100,00 %
07.08.2023 09:48 12,6 C 12,2 C 8,9 C 98 % 1015,1 hPa 0,0 l/m 0 min 2 min 82 W/m 22,5 km/h (4 Bft) 100,00 %
07.08.2023 09:50 12,6 C 12,2 C 8,9 C 98 % 1015,0 hPa 0,0 l/m 0 min 2 min 78 W/m 16,1 km/h (3 Bft) 97,83 %
07.08.2023 09:52 12,6 C 12,2 C 8,9 C 98 % 1015,2 hPa 0,0 l/m 0 min 0 min 67 W/m 19,3 km/h (3 Bft) 100,00 %
07.08.2023 09:54 12,6 C 12,2 C 9,4 C 98 % 1015,2 hPa 0,0 l/m 0 min 2 min 75 W/m 16,1 km/h (3 Bft) 100,00 %
07.08.2023 09:56 12,6 C 12,2 C 9,4 C 98 % 1015,2 hPa 0,0 l/m 0 min 0 min 86 W/m 19,3 km/h (3 Bft) 100,00 %
07.08.2023 09:58 12,7 C 12,2 C 9,4 C 98 % 1015,2 hPa 0,0 l/m 0 min 0 min 118 W/m 12,9 km/h (3 Bft) 97,87 %
07.08.2023 10:00 12,7 C 12,2 C 9,4 C 98 % 1015,3 hPa 0,0 l/m 0 min 0 min 138 W/m 19,3 km/h (3 Bft) 100,00 %
07.08.2023 10:02 12,7 C 12,2 C 9,4 C 98 % 1015,3 hPa 0,0 l/m 0 min 0 min 99 W/m 19,3 km/h (3 Bft) 97,87 %
07.08.2023 10:04 12,7 C 12,2 C 9,4 C 98 % 1015,4 hPa 0,0 l/m 0 min 0 min 94 W/m 25,7 km/h (4 Bft) 97,87 %
07.08.2023 10:06 12,7 C 12,2 C 9,4 C 98 % 1015,5 hPa 0,0 l/m 0 min 0 min 71 W/m 16,1 km/h (3 Bft) 95,74 %
07.08.2023 10:08 12,8 C 12,2 C 9,4 C 98 % 1015,5 hPa 0,0 l/m 0 min 0 min 73 W/m 16,1 km/h (3 Bft) 97,87 %
07.08.2023 10:10 12,8 C 12,2 C 9,4 C 98 % 1015,5 hPa 0,0 l/m 0 min 0 min 81 W/m 16,1 km/h (3 Bft) 97,87 %
07.08.2023 10:12 12,8 C 12,2 C 9,4 C 98 % 1015,5 hPa 0,0 l/m 0 min 0 min 73 W/m 16,1 km/h (3 Bft) 97,87 %
07.08.2023 10:14 12,8 C 12,2 C 9,4 C 98 % 1015,5 hPa 0,0 l/m 0 min 0 min 68 W/m 12,9 km/h (3 Bft) 93,62 %
07.08.2023 10:16 12,8 C 12,2 C 9,4 C 98 % 1015,6 hPa 0,0 l/m 0 min 0 min 64 W/m 9,7 km/h (2 Bft) 95,74 %
07.08.2023 10:18 12,8 C 12,2 C 9,4 C 98 % 1015,7 hPa 0,0 l/m 0 min 0 min 65 W/m 9,7 km/h (2 Bft) 74,47 %
07.08.2023 10:20 12,8 C 12,2 C 9,4 C 98 % 1015,8 hPa 0,0 l/m 0 min 2 min 55 W/m 12,9 km/h (3 Bft) 71,05 %
07.08.2023 10:22 12,8 C 12,2 C 9,4 C 98 % 1015,9 hPa 0,0 l/m 0 min 2 min 45 W/m 9,7 km/h (2 Bft) 95,74 %
07.08.2023 10:24 12,8 C 12,2 C 9,4 C 98 % 1015,8 hPa 0,4 l/m 0 min 2 min 52 W/m 16,1 km/h (3 Bft) 95,74 %
07.08.2023 10:26 12,8 C 12,2 C 9,4 C 98 % 1015,8 hPa 0,0 l/m 0 min 2 min 48 W/m 12,9 km/h (3 Bft) 95,74 %
07.08.2023 10:28 12,8 C 12,2 C 9,4 C 98 % 1015,8 hPa 0,0 l/m 0 min 0 min 42 W/m 22,5 km/h (4 Bft) 93,62 %
07.08.2023 10:30 12,7 C 12,2 C 9,4 C 98 % 1015,8 hPa 0,0 l/m 0 min 2 min 40 W/m 12,9 km/h (3 Bft) 93,62 %
07.08.2023 10:32 12,7 C 12,2 C 9,4 C 98 % 1015,8 hPa 0,2 l/m 0 min 0 min 42 W/m 12,9 km/h (3 Bft) 95,65 %
07.08.2023 10:34 12,8 C 12,2 C 9,4 C 98 % 1015,8 hPa 0,0 l/m 0 min 0 min 42 W/m 9,7 km/h (2 Bft) 95,74 %
07.08.2023 10:36 12,7 C 12,2 C 9,4 C 98 % 1015,8 hPa 0,0 l/m 0 min 0 min 49 W/m 6,4 km/h (2 Bft) 95,74 %
07.08.2023 10:38 12,8 C 12,2 C 9,4 C 98 % 1016,0 hPa 0,0 l/m 0 min 0 min 42 W/m 9,7 km/h (2 Bft) 95,74 %
07.08.2023 10:40 12,8 C 12,2 C 9,4 C 98 % 1016,1 hPa 0,0 l/m 0 min 2 min 42 W/m 12,9 km/h (3 Bft) 95,74 %
07.08.2023 10:42 12,8 C 12,2 C 9,4 C 98 % 1015,9 hPa 0,0 l/m 0 min 2 min 136 W/m 12,9 km/h (3 Bft) 95,74 %
07.08.2023 10:44 12,8 C 12,8 C 9,4 C 98 % 1015,8 hPa 0,0 l/m 0 min 0 min 163 W/m 12,9 km/h (3 Bft) 95,74 %
07.08.2023 10:46 12,9 C 12,8 C 9,4 C 99 % 1015,8 hPa 0,0 l/m 0 min 0 min 175 W/m 6,4 km/h (2 Bft) 95,65 %
07.08.2023 10:48 13,0 C 12,8 C 10,0 C 99 % 1015,9 hPa 0,0 l/m 0 min 0 min 184 W/m 3,2 km/h (1 Bft) 93,62 %
07.08.2023 10:50 13,1 C 13,3 C 10,0 C 99 % 1015,9 hPa 0,0 l/m 0 min 0 min 204 W/m 9,7 km/h (2 Bft) 95,74 %
07.08.2023 10:52 13,2 C 13,3 C 10,0 C 99 % 1015,9 hPa 0,0 l/m 0 min 0 min 212 W/m 9,7 km/h (2 Bft) 95,74 %
07.08.2023 10:54 13,3 C 13,3 C 10,0 C 99 % 1015,9 hPa 0,0 l/m 0 min 0 min 239 W/m 9,7 km/h (2 Bft) 95,74 %
07.08.2023 10:56 13,4 C 13,9 C 10,6 C 99 % 1015,9 hPa 0,0 l/m 0 min 0 min 305 W/m 16,1 km/h (3 Bft) 95,74 %
07.08.2023 10:58 13,5 C 13,9 C 10,6 C 99 % 1016,0 hPa 0,0 l/m 0 min 0 min 291 W/m 12,9 km/h (3 Bft) 95,74 %
07.08.2023 11:00 13,6 C 14,4 C 10,6 C 99 % 1015,9 hPa 0,0 l/m 2 min 0 min 338 W/m 35,4 km/h (5 Bft) 97,83 %
07.08.2023 11:02 13,6 C 14,4 C 10,6 C 99 % 1016,0 hPa 0,0 l/m 2 min 0 min 446 W/m 19,3 km/h (3 Bft) 100,00 %
07.08.2023 11:04 13,7 C 15,0 C 10,6 C 99 % 1015,9 hPa 0,0 l/m 2 min 0 min 467 W/m 22,5 km/h (4 Bft) 95,83 %
07.08.2023 11:06 13,8 C 14,4 C 10,6 C 99 % 1016,1 hPa 0,0 l/m 0 min 0 min 227 W/m 25,7 km/h (4 Bft) 95,74 %
07.08.2023 11:08 13,8 C 14,4 C 10,6 C 99 % 1016,1 hPa 0,0 l/m 0 min 0 min 240 W/m 12,9 km/h (3 Bft) 97,87 %
07.08.2023 11:10 13,9 C 14,4 C 10,6 C 99 % 1016,2 hPa 0,0 l/m 0 min 0 min 322 W/m 16,1 km/h (3 Bft) 97,87 %
07.08.2023 11:12 14,0 C 14,4 C 10,6 C 99 % 1016,2 hPa 0,0 l/m 0 min 0 min 327 W/m 16,1 km/h (3 Bft) 97,87 %
07.08.2023 11:14 14,1 C 14,4 C 10,6 C 98 % 1016,1 hPa 0,0 l/m 0 min 0 min 260 W/m 16,1 km/h (3 Bft) 97,83 %
07.08.2023 11:16 14,1 C 14,4 C 10,6 C 98 % 1016,2 hPa 0,0 l/m 0 min 0 min 254 W/m 29,0 km/h (5 Bft) 95,74 %
07.08.2023 11:18 14,1 C 14,4 C 10,0 C 98 % 1016,1 hPa 0,0 l/m 2 min 0 min 350 W/m 22,5 km/h (4 Bft) 97,87 %
07.08.2023 11:20 14,1 C 14,4 C 10,6 C 97 % 1016,1 hPa 0,0 l/m 2 min 0 min 358 W/m 25,7 km/h (4 Bft) 97,87 %
07.08.2023 11:22 14,2 C 15,0 C 10,6 C 97 % 1016,1 hPa 0,0 l/m 0 min 0 min 299 W/m 19,3 km/h (3 Bft) 97,87 %
07.08.2023 11:24 14,2 C 14,4 C 10,0 C 97 % 1016,0 hPa 0,0 l/m 0 min 0 min 217 W/m 19,3 km/h (3 Bft) 97,87 %
07.08.2023 11:26 14,3 C 14,4 C 10,0 C 96 % 1016,2 hPa 0,0 l/m 0 min 0 min 236 W/m 16,1 km/h (3 Bft) 97,87 %
07.08.2023 11:28 14,3 C 14,4 C 10,6 C 96 % 1016,2 hPa 0,0 l/m 0 min 0 min 301 W/m 19,3 km/h (3 Bft) 97,83 %
07.08.2023 11:30 14,3 C 15,0 C 10,6 C 96 % 1016,2 hPa 0,0 l/m 2 min 0 min 355 W/m 19,3 km/h (3 Bft) 97,87 %
07.08.2023 11:32 14,3 C 15,6 C 10,6 C 96 % 1016,2 hPa 0,0 l/m 2 min 0 min 378 W/m 16,1 km/h (3 Bft) 97,87 %
07.08.2023 11:34 14,5 C 16,1 C 10,6 C 95 % 1016,2 hPa 0,0 l/m 2 min 0 min 385 W/m 16,1 km/h (3 Bft) 97,87 %
07.08.2023 11:36 14,7 C 16,1 C 11,1 C 95 % 1016,2 hPa 0,0 l/m 2 min 0 min 450 W/m 19,3 km/h (3 Bft) 93,62 %
07.08.2023 11:38 14,8 C 16,1 C 11,1 C 95 % 1016,3 hPa 0,0 l/m 2 min 0 min 480 W/m 16,1 km/h (3 Bft) 100,00 %
07.08.2023 11:40 14,9 C 16,1 C 10,6 C 95 % 1016,3 hPa 0,0 l/m 0 min 0 min 322 W/m 22,5 km/h (4 Bft) 100,00 %
07.08.2023 11:42 14,9 C 15,6 C 10,6 C 94 % 1016,2 hPa 0,0 l/m 0 min 0 min 276 W/m 16,1 km/h (3 Bft) 100,00 %
07.08.2023 11:44 14,9 C 15,6 C 10,6 C 92 % 1016,3 hPa 0,0 l/m 0 min 0 min 311 W/m 32,2 km/h (5 Bft) 97,87 %
07.08.2023 11:46 15,0 C 16,1 C 10,6 C 92 % 1016,3 hPa 0,0 l/m 2 min 0 min 437 W/m 22,5 km/h (4 Bft) 100,00 %
07.08.2023 11:48 15,1 C 16,1 C 10,6 C 91 % 1016,4 hPa 0,0 l/m 2 min 0 min 448 W/m 25,7 km/h (4 Bft) 100,00 %
07.08.2023 11:50 15,2 C 17,2 C 10,6 C 91 % 1016,3 hPa 0,0 l/m 2 min 0 min 574 W/m 32,2 km/h (5 Bft) 100,00 %
07.08.2023 11:52 15,3 C 17,2 C 11,1 C 91 % 1016,3 hPa 0,0 l/m 2 min 0 min 497 W/m 16,1 km/h (3 Bft) 100,00 %
07.08.2023 11:54 15,4 C 17,2 C 10,6 C 90 % 1016,4 hPa 0,0 l/m 2 min 0 min 371 W/m 22,5 km/h (4 Bft) 100,00 %
07.08.2023 11:56 15,6 C 18,3 C 11,1 C 89 % 1016,3 hPa 0,0 l/m 2 min 0 min 371 W/m 16,1 km/h (3 Bft) 100,00 %
07.08.2023 11:58 15,7 C 19,4 C 11,1 C 89 % 1016,3 hPa 0,0 l/m 2 min 0 min 631 W/m 19,3 km/h (3 Bft) 100,00 %
07.08.2023 12:00 15,8 C 19,4 C 11,1 C 88 % 1016,5 hPa 0,0 l/m 2 min 0 min 898 W/m 16,1 km/h (3 Bft) 97,87 %
07.08.2023 12:02 16,1 C 20,0 C 11,7 C 88 % 1016,4 hPa 0,0 l/m 2 min 0 min 913 W/m 22,5 km/h (4 Bft) 100,00 %
07.08.2023 12:04 16,2 C 19,4 C 12,2 C 87 % 1016,4 hPa 0,0 l/m 2 min 0 min 918 W/m 16,1 km/h (3 Bft) 100,00 %
07.08.2023 12:07 16,4 C 20,6 C 13,3 C 86 % 1016,4 hPa 0,0 l/m 3 min 0 min 796 W/m 29,0 km/h (5 Bft) 100,00 %
07.08.2023 12:08 16,5 C 20,6 C 13,3 C 85 % 1016,2 hPa 0,0 l/m 1 min 0 min 838 W/m 29,0 km/h (5 Bft) 100,00 %
07.08.2023 12:12 16,7 C 20,0 C 13,9 C 85 % 1016,3 hPa 0,0 l/m 4 min 0 min 930 W/m 16,1 km/h (3 Bft) 100,00 %
07.08.2023 12:14 16,8 C 20,0 C 13,9 C 83 % 1016,3 hPa 0,0 l/m 2 min 0 min 930 W/m 22,5 km/h (4 Bft) 100,00 %
07.08.2023 12:16 16,8 C 19,4 C 13,9 C 82 % 1016,3 hPa 0,0 l/m 2 min 0 min 893 W/m 19,3 km/h (3 Bft) 100,00 %
07.08.2023 12:18 16,8 C 18,9 C 14,4 C 82 % 1016,3 hPa 0,0 l/m 2 min 0 min 720 W/m 16,1 km/h (3 Bft) 100,00 %
07.08.2023 12:20 16,8 C 19,4 C 14,4 C 81 % 1016,4 hPa 0,0 l/m 0 min 0 min 192 W/m 19,3 km/h (3 Bft) 100,00 %
07.08.2023 12:22 16,8 C 21,1 C 15,6 C 81 % 1016,3 hPa 0,0 l/m 2 min 0 min 819 W/m 19,3 km/h (3 Bft) 100,00 %
07.08.2023 12:24 17,0 C 21,1 C 16,1 C 82 % 1016,2 hPa 0,0 l/m 2 min 0 min 879 W/m 19,3 km/h (3 Bft) 100,00 %
07.08.2023 12:26 17,2 C 21,7 C 16,1 C 81 % 1016,2 hPa 0,0 l/m 2 min 0 min 895 W/m 16,1 km/h (3 Bft) 100,00 %
07.08.2023 12:28 17,3 C 22,8 C 16,7 C 81 % 1016,2 hPa 0,0 l/m 2 min 0 min 978 W/m 19,3 km/h (3 Bft) 100,00 %
07.08.2023 12:30 17,5 C 22,2 C 16,7 C 81 % 1016,2 hPa 0,0 l/m 2 min 0 min 1051 W/m 25,7 km/h (4 Bft) 97,87 %
07.08.2023 12:32 17,6 C 20,6 C 16,1 C 78 % 1016,1 hPa 0,0 l/m 2 min 0 min 744 W/m 25,7 km/h (4 Bft) 100,00 %
07.08.2023 12:34 17,7 C 19,4 C 15,6 C 77 % 1016,1 hPa 0,0 l/m 0 min 0 min 271 W/m 22,5 km/h (4 Bft) 100,00 %
07.08.2023 12:36 17,7 C 20,0 C 15,6 C 77 % 1016,2 hPa 0,0 l/m 0 min 0 min 239 W/m 19,3 km/h (3 Bft) 100,00 %
07.08.2023 12:38 17,7 C 19,4 C 15,0 C 75 % 1016,3 hPa 0,0 l/m 0 min 0 min 239 W/m 35,4 km/h (5 Bft) 97,87 %
07.08.2023 12:40 17,6 C 19,4 C 15,0 C 75 % 1016,2 hPa 0,0 l/m 0 min 0 min 239 W/m 16,1 km/h (3 Bft) 100,00 %
07.08.2023 12:42 17,5 C 20,6 C 14,4 C 74 % 1016,3 hPa 0,0 l/m 2 min 0 min 723 W/m 32,2 km/h (5 Bft) 100,00 %
07.08.2023 12:44 17,6 C 21,1 C 15,0 C 74 % 1016,3 hPa 0,0 l/m 2 min 0 min 917 W/m 32,2 km/h (5 Bft) 100,00 %
07.08.2023 12:46 17,6 C 21,1 C 15,0 C 73 % 1016,4 hPa 0,0 l/m 2 min 0 min 923 W/m 29,0 km/h (5 Bft) 100,00 %
07.08.2023 12:48 17,6 C 20,0 C 15,0 C 73 % 1016,4 hPa 0,0 l/m 2 min 0 min 923 W/m 22,5 km/h (4 Bft) 100,00 %
07.08.2023 12:50 17,6 C 19,4 C 14,4 C 73 % 1016,3 hPa 0,2 l/m 2 min 0 min 963 W/m 22,5 km/h (4 Bft) 97,83 %
07.08.2023 12:52 17,7 C 19,4 C 14,4 C 74 % 1016,4 hPa 0,0 l/m 2 min 0 min 951 W/m 25,7 km/h (4 Bft) 97,87 %
07.08.2023 12:54 17,6 C 19,4 C 13,9 C 72 % 1016,4 hPa 0,0 l/m 2 min 0 min 926 W/m 19,3 km/h (3 Bft) 97,87 %
07.08.2023 12:56 17,7 C 20,0 C 13,9 C 72 % 1016,6 hPa 0,0 l/m 2 min 0 min 923 W/m 29,0 km/h (5 Bft) 95,74 %
07.08.2023 12:58 17,8 C 20,0 C 13,9 C 73 % 1016,3 hPa 0,0 l/m 2 min 0 min 939 W/m 19,3 km/h (3 Bft) 97,87 %
07.08.2023 13:00 17,9 C 20,0 C 13,9 C 71 % 1016,5 hPa 0,0 l/m 2 min 0 min 930 W/m 22,5 km/h (4 Bft) 97,87 %
07.08.2023 13:02 17,9 C 20,0 C 13,9 C 71 % 1016,5 hPa 0,0 l/m 2 min 0 min 912 W/m 38,6 km/h (5 Bft) 93,62 %
07.08.2023 13:04 18,0 C 19,4 C 13,9 C 70 % 1016,5 hPa 0,0 l/m 2 min 0 min 976 W/m 25,7 km/h (4 Bft) 97,62 %
07.08.2023 13:06 18,0 C 18,9 C 13,9 C 66 % 1016,6 hPa 0,0 l/m 2 min 0 min 991 W/m 32,2 km/h (5 Bft) 97,87 %
07.08.2023 13:08 17,8 C 18,3 C 13,9 C 66 % 1016,5 hPa 0,0 l/m 0 min 0 min 102 W/m 22,5 km/h (4 Bft) 91,49 %
07.08.2023 13:10 17,8 C 18,3 C 13,9 C 66 % 1016,5 hPa 0,0 l/m 2 min 0 min 581 W/m 19,3 km/h (3 Bft) 93,48 %
07.08.2023 13:12 17,8 C 18,9 C 13,9 C 66 % 1016,5 hPa 0,0 l/m 2 min 0 min 883 W/m 29,0 km/h (5 Bft) 93,62 %
07.08.2023 13:14 17,9 C 18,9 C 13,9 C 67 % 1016,4 hPa 0,0 l/m 2 min 0 min 883 W/m 25,7 km/h (4 Bft) 93,62 %
07.08.2023 13:16 18,1 C 18,9 C 13,9 C 68 % 1016,5 hPa 0,0 l/m 2 min 0 min 884 W/m 22,5 km/h (4 Bft) 93,62 %
07.08.2023 13:18 18,2 C 18,9 C 13,9 C 67 % 1016,5 hPa 0,0 l/m 2 min 0 min 886 W/m 25,7 km/h (4 Bft) 93,62 %
07.08.2023 13:20 18,3 C 19,4 C 13,9 C 67 % 1016,6 hPa 0,0 l/m 2 min 0 min 885 W/m 22,5 km/h (4 Bft) 91,49 %
07.08.2023 13:22 18,4 C 19,4 C 14,4 C 68 % 1016,6 hPa 0,0 l/m 2 min 0 min 912 W/m 16,1 km/h (3 Bft) 95,74 %
07.08.2023 13:24 18,6 C 19,4 C 14,4 C 68 % 1016,5 hPa 0,0 l/m 2 min 0 min 932 W/m 22,5 km/h (4 Bft) 91,30 %
07.08.2023 13:26 18,7 C 20,0 C 14,4 C 67 % 1016,6 hPa 0,0 l/m 2 min 0 min 970 W/m 19,3 km/h (3 Bft) 91,49 %
07.08.2023 13:28 18,7 C 20,0 C 14,4 C 67 % 1016,6 hPa 0,0 l/m 2 min 0 min 988 W/m 19,3 km/h (3 Bft) 93,62 %
07.08.2023 13:30 18,8 C 21,1 C 15,0 C 66 % 1016,5 hPa 0,0 l/m 2 min 0 min 1031 W/m 19,3 km/h (3 Bft) 93,62 %
07.08.2023 13:32 18,9 C 22,2 C 15,0 C 68 % 1016,5 hPa 0,0 l/m 2 min 0 min 904 W/m 16,1 km/h (3 Bft) 95,74 %
07.08.2023 13:34 19,1 C 21,1 C 15,0 C 67 % 1016,4 hPa 0,0 l/m 2 min 0 min 895 W/m 22,5 km/h (4 Bft) 97,87 %
07.08.2023 13:36 19,1 C 20,6 C 15,0 C 67 % 1016,4 hPa 0,0 l/m 2 min 0 min 465 W/m 22,5 km/h (4 Bft) 95,74 %
07.08.2023 13:38 19,0 C 19,4 C 15,0 C 66 % 1016,5 hPa 0,0 l/m 0 min 0 min 346 W/m 22,5 km/h (4 Bft) 95,65 %
07.08.2023 13:40 18,9 C 21,1 C 15,0 C 66 % 1016,5 hPa 0,0 l/m 2 min 0 min 554 W/m 29,0 km/h (5 Bft) 93,62 %
07.08.2023 13:42 19,0 C 22,2 C 15,6 C 67 % 1016,6 hPa 0,0 l/m 2 min 0 min 819 W/m 22,5 km/h (4 Bft) 95,74 %
07.08.2023 13:44 19,0 C 20,0 C 15,0 C 63 % 1016,4 hPa 0,0 l/m 2 min 0 min 716 W/m 35,4 km/h (5 Bft) 95,74 %
07.08.2023 13:46 18,8 C 19,4 C 15,0 C 63 % 1016,7 hPa 0,0 l/m 2 min 0 min 451 W/m 19,3 km/h (3 Bft) 97,87 %
07.08.2023 13:48 18,7 C 18,9 C 14,4 C 64 % 1016,7 hPa 0,0 l/m 0 min 0 min 371 W/m 22,5 km/h (4 Bft) 95,74 %
07.08.2023 13:50 18,6 C 18,9 C 14,4 C 64 % 1016,7 hPa 0,0 l/m 0 min 0 min 316 W/m 25,7 km/h (4 Bft) 95,74 %
07.08.2023 13:52 18,6 C 19,4 C 15,0 C 64 % 1016,7 hPa 0,0 l/m 0 min 0 min 327 W/m 22,5 km/h (4 Bft) 95,65 %
07.08.2023 13:54 18,6 C 20,0 C 15,0 C 64 % 1016,6 hPa 0,0 l/m 2 min 0 min 478 W/m 25,7 km/h (4 Bft) 97,87 %
07.08.2023 13:56 18,6 C 20,0 C 15,0 C 64 % 1016,8 hPa 0,0 l/m 2 min 0 min 450 W/m 32,2 km/h (5 Bft) 95,74 %
07.08.2023 13:58 18,6 C 19,4 C 15,0 C 63 % 1016,8 hPa 0,0 l/m 2 min 0 min 426 W/m 29,0 km/h (5 Bft) 97,87 %
07.08.2023 14:00 18,6 C 20,0 C 15,0 C 64 % 1016,6 hPa 0,0 l/m 0 min 0 min 346 W/m 29,0 km/h (5 Bft) 97,87 %
07.08.2023 14:02 18,6 C 19,4 C 14,4 C 64 % 1016,8 hPa 0,0 l/m 0 min 0 min 327 W/m 29,0 km/h (5 Bft) 95,74 %
07.08.2023 14:04 18,5 C 18,9 C 14,4 C 64 % 1016,8 hPa 0,0 l/m 0 min 0 min 285 W/m 22,5 km/h (4 Bft) 97,96 %
07.08.2023 14:06 18,4 C 18,9 C 14,4 C 64 % 1016,6 hPa 0,0 l/m 0 min 0 min 366 W/m 35,4 km/h (5 Bft) 97,83 %
07.08.2023 14:08 18,4 C 18,9 C 14,4 C 65 % 1016,7 hPa 0,0 l/m 0 min 0 min 332 W/m 29,0 km/h (5 Bft) 95,74 %
07.08.2023 14:10 18,3 C 18,3 C 14,4 C 65 % 1016,6 hPa 0,0 l/m 0 min 0 min 285 W/m 22,5 km/h (4 Bft) 97,87 %
07.08.2023 14:12 18,3 C 21,1 C 14,4 C 65 % 1016,6 hPa 0,0 l/m 0 min 0 min 188 W/m 19,3 km/h (3 Bft) 97,87 %
07.08.2023 14:14 18,5 C 22,8 C 14,4 C 66 % 1016,6 hPa 0,0 l/m 0 min 0 min 308 W/m 19,3 km/h (3 Bft) 95,74 %
07.08.2023 14:16 18,7 C 23,9 C 14,4 C 65 % 1016,7 hPa 0,0 l/m 2 min 0 min 926 W/m 19,3 km/h (3 Bft) 95,74 %
07.08.2023 14:18 18,9 C 25,0 C 15,0 C 65 % 1016,6 hPa 0,0 l/m 2 min 0 min 922 W/m 16,1 km/h (3 Bft) 97,87 %
07.08.2023 14:20 19,1 C 23,3 C 15,0 C 64 % 1016,6 hPa 0,0 l/m 2 min 0 min 875 W/m 25,7 km/h (4 Bft) 95,65 %
07.08.2023 14:22 19,2 C 23,3 C 15,0 C 63 % 1016,6 hPa 0,0 l/m 2 min 0 min 875 W/m 25,7 km/h (4 Bft) 98,00 %
07.08.2023 14:24 19,2 C 23,9 C 15,0 C 63 % 1016,7 hPa 0,0 l/m 2 min 0 min 911 W/m 22,5 km/h (4 Bft) 97,87 %
07.08.2023 14:26 19,3 C 23,3 C 15,0 C 63 % 1016,7 hPa 0,0 l/m 2 min 0 min 928 W/m 29,0 km/h (5 Bft) 95,74 %
07.08.2023 14:28 19,4 C 23,3 C 15,0 C 61 % 1016,7 hPa 0,0 l/m 2 min 0 min 928 W/m 22,5 km/h (4 Bft) 97,83 %
07.08.2023 14:30 19,5 C 23,9 C 15,0 C 61 % 1016,5 hPa 0,0 l/m 2 min 0 min 962 W/m 22,5 km/h (4 Bft) 97,87 %
07.08.2023 14:32 19,6 C 22,8 C 15,0 C 60 % 1016,6 hPa 0,0 l/m 2 min 0 min 854 W/m 19,3 km/h (3 Bft) 93,62 %
07.08.2023 14:34 19,6 C 23,3 C 15,0 C 60 % 1016,7 hPa 0,0 l/m 2 min 0 min 1029 W/m 29,0 km/h (5 Bft) 95,74 %
07.08.2023 14:36 19,6 C 23,3 C 15,6 C 60 % 1016,7 hPa 0,0 l/m 2 min 0 min 943 W/m 25,7 km/h (4 Bft) 97,87 %
07.08.2023 14:38 19,6 C 21,7 C 15,6 C 59 % 1016,7 hPa 0,0 l/m 2 min 0 min 714 W/m 22,5 km/h (4 Bft) 95,74 %
07.08.2023 14:40 19,6 C 22,8 C 15,0 C 59 % 1016,7 hPa 0,0 l/m 0 min 0 min 248 W/m 16,1 km/h (3 Bft) 97,87 %
07.08.2023 14:42 19,7 C 23,3 C 15,0 C 59 % 1016,7 hPa 0,0 l/m 2 min 0 min 913 W/m 32,2 km/h (5 Bft) 95,74 %
07.08.2023 14:44 19,8 C 24,4 C 15,6 C 60 % 1016,8 hPa 0,0 l/m 2 min 0 min 982 W/m 22,5 km/h (4 Bft) 93,48 %
07.08.2023 14:46 19,8 C 24,4 C 15,6 C 58 % 1016,8 hPa 0,0 l/m 2 min 0 min 1021 W/m 32,2 km/h (5 Bft) 100,00 %
07.08.2023 14:48 20,0 C 25,0 C 15,6 C 60 % 1016,7 hPa 0,0 l/m 2 min 0 min 1088 W/m 19,3 km/h (3 Bft) 100,00 %
07.08.2023 14:50 20,1 C 25,6 C 15,6 C 59 % 1016,7 hPa 0,0 l/m 2 min 0 min 1094 W/m 25,7 km/h (4 Bft) 97,87 %
07.08.2023 14:52 20,2 C 25,0 C 16,1 C 58 % 1016,7 hPa 0,0 l/m 2 min 0 min 1062 W/m 22,5 km/h (4 Bft) 100,00 %
07.08.2023 14:54 20,2 C 24,4 C 15,6 C 57 % 1016,8 hPa 0,0 l/m 2 min 0 min 998 W/m 25,7 km/h (4 Bft) 100,00 %
07.08.2023 14:56 20,2 C 24,4 C 15,6 C 58 % 1016,8 hPa 0,0 l/m 2 min 0 min 926 W/m 22,5 km/h (4 Bft) 97,87 %
07.08.2023 14:58 20,2 C 25,0 C 15,6 C 58 % 1016,7 hPa 0,0 l/m 2 min 0 min 893 W/m 22,5 km/h (4 Bft) 100,00 %
07.08.2023 15:00 20,3 C 25,0 C 15,6 C 59 % 1016,6 hPa 0,0 l/m 2 min 0 min 921 W/m 25,7 km/h (4 Bft) 100,00 %
07.08.2023 15:02 20,3 C 24,4 C 15,6 C 59 % 1016,8 hPa 0,0 l/m 2 min 0 min 980 W/m 25,7 km/h (4 Bft) 95,74 %
07.08.2023 15:04 20,3 C 24,4 C 15,6 C 59 % 1016,8 hPa 0,0 l/m 2 min 0 min 954 W/m 25,7 km/h (4 Bft) 97,87 %
07.08.2023 15:06 20,4 C 25,6 C 15,6 C 59 % 1016,7 hPa 0,0 l/m 2 min 0 min 959 W/m 19,3 km/h (3 Bft) 100,00 %
07.08.2023 15:08 20,4 C 24,4 C 15,6 C 59 % 1016,8 hPa 0,0 l/m 2 min 0 min 973 W/m 25,7 km/h (4 Bft) 97,87 %
07.08.2023 15:10 20,3 C 22,2 C 15,6 C 58 % 1016,7 hPa 0,0 l/m 2 min 0 min 726 W/m 22,5 km/h (4 Bft) 100,00 %
07.08.2023 15:12 20,2 C 22,2 C 15,6 C 57 % 1016,9 hPa 0,0 l/m 2 min 0 min 478 W/m 12,9 km/h (3 Bft) 100,00 %
07.08.2023 15:14 20,1 C 23,3 C 15,6 C 58 % 1016,8 hPa 0,0 l/m 2 min 0 min 662 W/m 32,2 km/h (5 Bft) 95,74 %
07.08.2023 15:16 20,1 C 23,9 C 15,6 C 59 % 1016,8 hPa 0,0 l/m 2 min 0 min 907 W/m 22,5 km/h (4 Bft) 97,87 %
07.08.2023 15:18 20,1 C 25,0 C 15,6 C 60 % 1016,8 hPa 0,0 l/m 2 min 0 min 881 W/m 38,6 km/h (5 Bft) 97,14 %
07.08.2023 15:20 20,2 C 25,0 C 15,6 C 59 % 1016,8 hPa 0,0 l/m 2 min 0 min 924 W/m 19,3 km/h (3 Bft) 94,34 %
07.08.2023 15:22 20,3 C 25,0 C 15,6 C 58 % 1016,9 hPa 0,0 l/m 2 min 0 min 934 W/m 29,0 km/h (5 Bft) 95,74 %
07.08.2023 15:24 20,3 C 25,0 C 15,6 C 56 % 1016,8 hPa 0,0 l/m 2 min 0 min 945 W/m 22,5 km/h (4 Bft) 93,62 %
07.08.2023 15:26 20,3 C 23,9 C 15,6 C 56 % 1016,8 hPa 0,0 l/m 2 min 0 min 935 W/m 29,0 km/h (5 Bft) 92,00 %
07.08.2023 15:28 20,3 C 23,3 C 15,6 C 56 % 1016,8 hPa 0,0 l/m 2 min 0 min 933 W/m 25,7 km/h (4 Bft) 95,65 %
07.08.2023 15:30 20,2 C 22,2 C 15,6 C 56 % 1016,9 hPa 0,0 l/m 2 min 0 min 914 W/m 29,0 km/h (5 Bft) 95,74 %
07.08.2023 15:32 20,1 C 21,7 C 15,6 C 56 % 1016,8 hPa 0,0 l/m 2 min 0 min 914 W/m 16,1 km/h (3 Bft) 91,49 %
07.08.2023 15:34 20,1 C 22,2 C 15,6 C 57 % 1016,9 hPa 0,0 l/m 2 min 0 min 914 W/m 16,1 km/h (3 Bft) 95,74 %
07.08.2023 15:36 20,1 C 21,7 C 15,6 C 57 % 1016,8 hPa 0,0 l/m 2 min 0 min 926 W/m 25,7 km/h (4 Bft) 95,74 %
07.08.2023 15:38 20,0 C 21,1 C 15,0 C 58 % 1016,9 hPa 0,0 l/m 2 min 0 min 926 W/m 16,1 km/h (3 Bft) 93,62 %
07.08.2023 15:40 19,9 C 21,7 C 15,0 C 58 % 1016,7 hPa 0,0 l/m 2 min 0 min 926 W/m 16,1 km/h (3 Bft) 95,74 %
07.08.2023 15:42 20,0 C 22,8 C 15,6 C 59 % 1016,8 hPa 0,0 l/m 2 min 0 min 850 W/m 22,5 km/h (4 Bft) 93,48 %
07.08.2023 15:44 20,1 C 22,8 C 15,6 C 58 % 1016,9 hPa 0,0 l/m 2 min 0 min 846 W/m 35,4 km/h (5 Bft) 93,62 %
07.08.2023 15:46 20,1 C 21,7 C 15,6 C 57 % 1016,8 hPa 0,0 l/m 2 min 0 min 558 W/m 29,0 km/h (5 Bft) 97,87 %
07.08.2023 15:48 20,1 C 21,1 C 15,0 C 57 % 1016,8 hPa 0,0 l/m 0 min 0 min 208 W/m 22,5 km/h (4 Bft) 95,74 %
07.08.2023 15:50 19,9 C 21,1 C 15,0 C 58 % 1016,7 hPa 0,0 l/m 0 min 0 min 186 W/m 25,7 km/h (4 Bft) 91,49 %
07.08.2023 15:52 19,8 C 22,2 C 15,0 C 59 % 1016,9 hPa 0,0 l/m 2 min 0 min 737 W/m 25,7 km/h (4 Bft) 95,74 %
07.08.2023 15:54 19,8 C 22,8 C 15,0 C 58 % 1016,8 hPa 0,0 l/m 2 min 0 min 784 W/m 25,7 km/h (4 Bft) 97,87 %
07.08.2023 15:56 19,9 C 23,3 C 15,6 C 59 % 1016,8 hPa 0,0 l/m 2 min 0 min 797 W/m 16,1 km/h (3 Bft) 95,65 %
07.08.2023 15:58 20,1 C 23,3 C 15,6 C 60 % 1016,9 hPa 0,0 l/m 2 min 0 min 823 W/m 25,7 km/h (4 Bft) 95,74 %
07.08.2023 16:00 20,1 C 21,1 C 15,0 C 59 % 1016,9 hPa 0,0 l/m 2 min 0 min 428 W/m 22,5 km/h (4 Bft) 97,87 %
07.08.2023 16:02 19,9 C 20,6 C 15,0 C 60 % 1017,0 hPa 0,0 l/m 0 min 0 min 199 W/m 16,1 km/h (3 Bft) 95,74 %
07.08.2023 16:04 19,8 C 19,4 C 15,0 C 60 % 1016,9 hPa 0,0 l/m 0 min 0 min 200 W/m 29,0 km/h (5 Bft) 100,00 %
07.08.2023 16:06 19,6 C 18,9 C 15,0 C 61 % 1017,0 hPa 0,0 l/m 0 min 0 min 183 W/m 22,5 km/h (4 Bft) 100,00 %
07.08.2023 16:08 19,4 C 18,9 C 14,4 C 62 % 1017,0 hPa 0,0 l/m 0 min 0 min 189 W/m 19,3 km/h (3 Bft) 97,87 %
07.08.2023 16:10 19,3 C 18,9 C 14,4 C 62 % 1017,0 hPa 0,0 l/m 0 min 0 min 211 W/m 12,9 km/h (3 Bft) 100,00 %
07.08.2023 16:12 19,2 C 18,9 C 14,4 C 63 % 1017,0 hPa 0,0 l/m 0 min 0 min 204 W/m 16,1 km/h (3 Bft) 95,74 %
07.08.2023 16:14 19,2 C 18,9 C 14,4 C 64 % 1017,0 hPa 0,0 l/m 0 min 0 min 181 W/m 12,9 km/h (3 Bft) 97,87 %
07.08.2023 16:16 19,1 C 19,4 C 14,4 C 64 % 1017,0 hPa 0,0 l/m 0 min 0 min 218 W/m 12,9 km/h (3 Bft) 100,00 %
07.08.2023 16:18 19,2 C 19,4 C 14,4 C 65 % 1017,0 hPa 0,0 l/m 0 min 0 min 237 W/m 12,9 km/h (3 Bft) 100,00 %
07.08.2023 16:20 19,2 C 19,4 C 15,0 C 66 % 1017,1 hPa 0,0 l/m 0 min 0 min 280 W/m 19,3 km/h (3 Bft) 95,74 %
07.08.2023 16:22 19,2 C 19,4 C 15,0 C 67 % 1017,1 hPa 0,0 l/m 0 min 0 min 257 W/m 16,1 km/h (3 Bft) 97,87 %
07.08.2023 16:24 19,3 C 19,4 C 15,0 C 68 % 1017,0 hPa 0,0 l/m 0 min 0 min 246 W/m 12,9 km/h (3 Bft) 100,00 %
07.08.2023 16:26 19,3 C 19,4 C 15,0 C 68 % 1017,1 hPa 0,0 l/m 0 min 0 min 181 W/m 12,9 km/h (3 Bft) 97,87 %
07.08.2023 16:28 19,2 C 18,9 C 15,0 C 67 % 1016,9 hPa 0,0 l/m 0 min 0 min 136 W/m 22,5 km/h (4 Bft) 100,00 %
07.08.2023 16:30 19,1 C 18,9 C 14,4 C 66 % 1017,1 hPa 0,0 l/m 0 min 0 min 174 W/m 19,3 km/h (3 Bft) 100,00 %
07.08.2023 16:32 19,1 C 18,9 C 14,4 C 67 % 1017,0 hPa 0,0 l/m 0 min 0 min 295 W/m 12,9 km/h (3 Bft) 97,87 %
07.08.2023 16:34 19,1 C 20,0 C 15,0 C 68 % 1017,1 hPa 0,0 l/m 2 min 0 min 599 W/m 16,1 km/h (3 Bft) 100,00 %
07.08.2023 16:36 19,2 C 20,0 C 15,0 C 67 % 1017,3 hPa 0,0 l/m 2 min 0 min 821 W/m 19,3 km/h (3 Bft) 100,00 %
07.08.2023 16:38 19,3 C 20,6 C 15,0 C 67 % 1017,2 hPa 0,0 l/m 2 min 0 min 821 W/m 22,5 km/h (4 Bft) 97,83 %
07.08.2023 16:40 19,4 C 20,0 C 15,0 C 67 % 1017,2 hPa 0,0 l/m 2 min 0 min 736 W/m 22,5 km/h (4 Bft) 100,00 %
07.08.2023 16:42 19,3 C 21,1 C 15,0 C 67 % 1017,2 hPa 0,0 l/m 2 min 0 min 761 W/m 19,3 km/h (3 Bft) 97,87 %
07.08.2023 16:44 19,4 C 21,1 C 15,0 C 68 % 1017,2 hPa 0,0 l/m 2 min 0 min 768 W/m 22,5 km/h (4 Bft) 97,87 %
07.08.2023 16:46 19,4 C 21,7 C 15,0 C 67 % 1017,2 hPa 0,0 l/m 2 min 0 min 723 W/m 16,1 km/h (3 Bft) 100,00 %
07.08.2023 16:48 19,6 C 22,2 C 15,0 C 67 % 1017,0 hPa 0,0 l/m 2 min 0 min 709 W/m 16,1 km/h (3 Bft) 100,00 %
07.08.2023 16:50 19,7 C 21,7 C 15,0 C 66 % 1017,2 hPa 0,0 l/m 2 min 0 min 710 W/m 19,3 km/h (3 Bft) 97,87 %
07.08.2023 16:52 19,7 C 21,7 C 15,6 C 66 % 1017,2 hPa 0,0 l/m 2 min 0 min 714 W/m 16,1 km/h (3 Bft) 100,00 %
07.08.2023 16:54 19,8 C 21,7 C 15,6 C 66 % 1017,2 hPa 0,0 l/m 2 min 0 min 715 W/m 16,1 km/h (3 Bft) 97,87 %
07.08.2023 16:56 19,9 C 21,1 C 15,6 C 65 % 1017,3 hPa 0,0 l/m 2 min 0 min 722 W/m 22,5 km/h (4 Bft) 97,87 %
07.08.2023 16:58 19,9 C 20,6 C 15,6 C 65 % 1017,2 hPa 0,0 l/m 2 min 0 min 468 W/m 22,5 km/h (4 Bft) 100,00 %
07.08.2023 17:00 19,8 C 21,1 C 15,0 C 65 % 1017,3 hPa 0,0 l/m 0 min 0 min 251 W/m 19,3 km/h (3 Bft) 100,00 %
07.08.2023 17:02 19,7 C 20,0 C 15,0 C 66 % 1017,3 hPa 0,0 l/m 2 min 0 min 560 W/m 19,3 km/h (3 Bft) 97,87 %
07.08.2023 17:04 19,6 C 19,4 C 15,0 C 66 % 1017,4 hPa 0,0 l/m 0 min 0 min 158 W/m 12,9 km/h (3 Bft) 100,00 %
07.08.2023 17:06 19,4 C 18,9 C 15,0 C 66 % 1017,3 hPa 0,0 l/m 0 min 0 min 151 W/m 22,5 km/h (4 Bft) 100,00 %
07.08.2023 17:08 19,2 C 18,3 C 14,4 C 66 % 1017,3 hPa 0,0 l/m 0 min 0 min 137 W/m 22,5 km/h (4 Bft) 100,00 %
07.08.2023 17:10 19,1 C 18,3 C 14,4 C 67 % 1017,4 hPa 0,0 l/m 0 min 0 min 112 W/m 19,3 km/h (3 Bft) 100,00 %
07.08.2023 17:12 18,9 C 17,8 C 14,4 C 68 % 1017,4 hPa 0,0 l/m 0 min 0 min 89 W/m 25,7 km/h (4 Bft) 95,74 %
07.08.2023 17:14 18,7 C 17,8 C 13,9 C 71 % 1017,4 hPa 0,0 l/m 0 min 2 min 90 W/m 16,1 km/h (3 Bft) 97,87 %
07.08.2023 17:16 18,6 C 17,2 C 12,8 C 73 % 1017,5 hPa 0,0 l/m 0 min 2 min 76 W/m 29,0 km/h (5 Bft) 97,87 %
07.08.2023 17:18 18,3 C 16,7 C 11,7 C 76 % 1017,5 hPa 0,2 l/m 0 min 2 min 71 W/m 22,5 km/h (4 Bft) 97,87 %
07.08.2023 17:20 18,0 C 16,1 C 11,1 C 76 % 1017,6 hPa 0,2 l/m 0 min 2 min 112 W/m 22,5 km/h (4 Bft) 97,87 %
07.08.2023 17:22 17,8 C 16,1 C 11,1 C 77 % 1017,6 hPa 0,0 l/m 0 min 2 min 184 W/m 25,7 km/h (4 Bft) 97,83 %
07.08.2023 17:24 17,6 C 18,3 C 11,1 C 79 % 1017,5 hPa 0,0 l/m 2 min 0 min 379 W/m 16,1 km/h (3 Bft) 97,87 %
07.08.2023 17:26 17,5 C 19,4 C 11,7 C 80 % 1017,5 hPa 0,0 l/m 2 min 0 min 700 W/m 16,1 km/h (3 Bft) 93,62 %
07.08.2023 17:28 17,6 C 21,1 C 12,2 C 81 % 1017,5 hPa 0,0 l/m 2 min 0 min 707 W/m 19,3 km/h (3 Bft) 97,87 %
07.08.2023 17:30 17,6 C 21,7 C 12,8 C 82 % 1017,5 hPa 0,0 l/m 2 min 0 min 644 W/m 12,9 km/h (3 Bft) 91,49 %
07.08.2023 17:32 17,7 C 22,2 C 13,3 C 82 % 1017,5 hPa 0,0 l/m 2 min 0 min 605 W/m 12,9 km/h (3 Bft) 93,62 %
07.08.2023 17:34 17,8 C 21,7 C 13,3 C 82 % 1017,5 hPa 0,0 l/m 2 min 0 min 609 W/m 25,7 km/h (4 Bft) 95,74 %
07.08.2023 17:36 17,8 C 21,7 C 13,9 C 80 % 1017,5 hPa 0,0 l/m 2 min 0 min 596 W/m 25,7 km/h (4 Bft) 95,65 %
07.08.2023 17:38 17,9 C 20,6 C 13,9 C 80 % 1017,5 hPa 0,0 l/m 2 min 0 min 478 W/m 9,7 km/h (2 Bft) 95,74 %
07.08.2023 17:40 17,9 C 19,4 C 13,9 C 80 % 1017,5 hPa 0,0 l/m 0 min 0 min 138 W/m 16,1 km/h (3 Bft) 93,62 %
07.08.2023 17:42 17,9 C 18,9 C 13,9 C 79 % 1017,5 hPa 0,0 l/m 0 min 0 min 169 W/m 12,9 km/h (3 Bft) 95,74 %
07.08.2023 17:44 17,9 C 18,9 C 13,9 C 79 % 1017,4 hPa 0,0 l/m 0 min 0 min 186 W/m 12,9 km/h (3 Bft) 91,49 %
07.08.2023 17:46 17,9 C 18,9 C 13,9 C 79 % 1017,4 hPa 0,0 l/m 0 min 0 min 227 W/m 12,9 km/h (3 Bft) 95,74 %
07.08.2023 17:48 17,8 C 19,4 C 13,9 C 78 % 1017,5 hPa 0,0 l/m 0 min 0 min 199 W/m 22,5 km/h (4 Bft) 95,74 %
07.08.2023 17:50 17,9 C 20,6 C 13,9 C 78 % 1017,4 hPa 0,0 l/m 2 min 0 min 569 W/m 12,9 km/h (3 Bft) 95,65 %
07.08.2023 17:52 18,0 C 21,1 C 14,4 C 77 % 1017,4 hPa 0,0 l/m 2 min 0 min 552 W/m 25,7 km/h (4 Bft) 95,74 %
07.08.2023 17:54 18,1 C 21,1 C 14,4 C 76 % 1017,5 hPa 0,0 l/m 2 min 0 min 518 W/m 25,7 km/h (4 Bft) 93,62 %
07.08.2023 17:56 18,2 C 21,7 C 15,0 C 76 % 1017,5 hPa 0,0 l/m 2 min 0 min 472 W/m 16,1 km/h (3 Bft) 93,62 %
07.08.2023 17:58 18,2 C 21,7 C 15,0 C 76 % 1017,4 hPa 0,0 l/m 2 min 0 min 448 W/m 19,3 km/h (3 Bft) 93,62 %
07.08.2023 18:00 18,3 C 21,7 C 15,0 C 75 % 1017,5 hPa 0,0 l/m 2 min 0 min 397 W/m 25,7 km/h (4 Bft) 91,49 %
07.08.2023 18:02 18,4 C 21,1 C 15,0 C 75 % 1017,4 hPa 0,0 l/m 2 min 0 min 256 W/m 19,3 km/h (3 Bft) 89,36 %
07.08.2023 18:04 18,4 C 21,7 C 15,0 C 75 % 1017,4 hPa 0,0 l/m 2 min 0 min 259 W/m 16,1 km/h (3 Bft) 90,48 %
07.08.2023 18:07 18,6 C 22,2 C 15,0 C 75 % 1017,4 hPa 0,0 l/m 3 min 0 min 524 W/m 25,7 km/h (4 Bft) 90,48 %
07.08.2023 18:08 18,6 C 22,2 C 15,0 C 75 % 1017,4 hPa 0,0 l/m 1 min 0 min 511 W/m 25,7 km/h (4 Bft) 96,63 %
07.08.2023 18:12 18,6 C 22,8 C 15,0 C 73 % 1017,4 hPa 0,0 l/m 4 min 0 min 439 W/m 16,1 km/h (3 Bft) 97,78 %
07.08.2023 18:14 18,7 C 22,8 C 15,6 C 74 % 1017,5 hPa 0,0 l/m 2 min 0 min 435 W/m 22,5 km/h (4 Bft) 97,87 %
07.08.2023 18:16 18,7 C 22,8 C 15,6 C 73 % 1017,5 hPa 0,0 l/m 2 min 0 min 432 W/m 16,1 km/h (3 Bft) 97,87 %
07.08.2023 18:18 18,8 C 22,8 C 15,6 C 73 % 1017,4 hPa 0,0 l/m 2 min 0 min 434 W/m 19,3 km/h (3 Bft) 95,74 %
07.08.2023 18:20 18,9 C 22,8 C 15,6 C 73 % 1017,5 hPa 0,0 l/m 2 min 0 min 438 W/m 19,3 km/h (3 Bft) 97,87 %
07.08.2023 18:22 18,9 C 22,8 C 15,6 C 73 % 1017,5 hPa 0,0 l/m 2 min 0 min 437 W/m 22,5 km/h (4 Bft) 97,83 %
07.08.2023 18:24 19,0 C 22,2 C 15,6 C 72 % 1017,6 hPa 0,0 l/m 2 min 0 min 432 W/m 22,5 km/h (4 Bft) 97,87 %
07.08.2023 18:26 19,0 C 22,2 C 15,6 C 72 % 1017,5 hPa 0,0 l/m 2 min 0 min 422 W/m 12,9 km/h (3 Bft) 97,87 %
07.08.2023 18:28 19,0 C 21,7 C 15,0 C 71 % 1017,5 hPa 0,0 l/m 2 min 0 min 394 W/m 19,3 km/h (3 Bft) 97,87 %
07.08.2023 18:30 18,9 C 21,7 C 15,0 C 71 % 1017,5 hPa 0,0 l/m 2 min 0 min 408 W/m 19,3 km/h (3 Bft) 95,74 %
07.08.2023 18:32 18,9 C 20,6 C 15,0 C 71 % 1017,5 hPa 0,0 l/m 2 min 0 min 417 W/m 12,9 km/h (3 Bft) 97,87 %
07.08.2023 18:34 18,9 C 21,1 C 15,0 C 72 % 1017,5 hPa 0,0 l/m 2 min 0 min 428 W/m 16,1 km/h (3 Bft) 97,87 %
07.08.2023 18:36 18,9 C 21,7 C 15,0 C 71 % 1017,5 hPa 0,0 l/m 2 min 0 min 302 W/m 25,7 km/h (4 Bft) 95,65 %
07.08.2023 18:38 18,9 C 21,7 C 15,0 C 71 % 1017,5 hPa 0,0 l/m 2 min 0 min 309 W/m 19,3 km/h (3 Bft) 97,87 %
07.08.2023 18:40 18,9 C 21,7 C 15,0 C 71 % 1017,4 hPa 0,0 l/m 2 min 0 min 406 W/m 12,9 km/h (3 Bft) 100,00 %
07.08.2023 18:42 18,9 C 21,1 C 15,0 C 70 % 1017,4 hPa 0,0 l/m 2 min 0 min 400 W/m 12,9 km/h (3 Bft) 100,00 %
07.08.2023 18:44 18,9 C 21,1 C 15,0 C 71 % 1017,4 hPa 0,0 l/m 2 min 0 min 411 W/m 35,4 km/h (5 Bft) 97,87 %
07.08.2023 18:46 18,9 C 21,7 C 15,0 C 70 % 1017,3 hPa 0,0 l/m 2 min 0 min 373 W/m 16,1 km/h (3 Bft) 97,87 %
07.08.2023 18:48 18,9 C 21,7 C 14,4 C 70 % 1017,3 hPa 0,0 l/m 2 min 0 min 362 W/m 19,3 km/h (3 Bft) 100,00 %
07.08.2023 18:50 18,9 C 22,2 C 14,4 C 70 % 1017,3 hPa 0,0 l/m 2 min 0 min 359 W/m 19,3 km/h (3 Bft) 100,00 %
07.08.2023 18:52 18,9 C 22,2 C 14,4 C 71 % 1017,3 hPa 0,0 l/m 2 min 0 min 359 W/m 16,1 km/h (3 Bft) 97,87 %
07.08.2023 18:54 18,9 C 22,2 C 14,4 C 71 % 1017,3 hPa 0,0 l/m 2 min 0 min 325 W/m 12,9 km/h (3 Bft) 97,87 %
07.08.2023 18:56 18,9 C 22,2 C 14,4 C 71 % 1017,4 hPa 0,0 l/m 2 min 0 min 337 W/m 12,9 km/h (3 Bft) 100,00 %
07.08.2023 18:58 19,0 C 21,1 C 14,4 C 71 % 1017,4 hPa 0,0 l/m 2 min 0 min 272 W/m 9,7 km/h (2 Bft) 100,00 %
07.08.2023 19:00 18,9 C 19,4 C 14,4 C 71 % 1017,2 hPa 0,0 l/m 0 min 0 min 87 W/m 12,9 km/h (3 Bft) 100,00 %
07.08.2023 19:02 18,8 C 18,9 C 13,9 C 71 % 1017,3 hPa 0,0 l/m 0 min 0 min 69 W/m 16,1 km/h (3 Bft) 100,00 %
07.08.2023 19:04 18,8 C 18,3 C 13,9 C 72 % 1017,2 hPa 0,0 l/m 0 min 0 min 83 W/m 22,5 km/h (4 Bft) 100,00 %
07.08.2023 19:06 18,7 C 17,8 C 13,9 C 72 % 1017,3 hPa 0,0 l/m 0 min 0 min 75 W/m 25,7 km/h (4 Bft) 100,00 %
07.08.2023 19:08 18,6 C 17,8 C 13,9 C 72 % 1017,3 hPa 0,0 l/m 0 min 0 min 79 W/m 16,1 km/h (3 Bft) 100,00 %
07.08.2023 19:10 18,4 C 17,2 C 13,3 C 73 % 1017,3 hPa 0,0 l/m 0 min 0 min 77 W/m 12,9 km/h (3 Bft) 97,87 %
07.08.2023 19:12 18,3 C 17,2 C 13,3 C 73 % 1017,3 hPa 0,0 l/m 0 min 0 min 65 W/m 9,7 km/h (2 Bft) 100,00 %
07.08.2023 19:14 18,3 C 17,2 C 13,3 C 74 % 1017,3 hPa 0,0 l/m 0 min 0 min 57 W/m 12,9 km/h (3 Bft) 100,00 %
07.08.2023 19:16 18,2 C 17,2 C 13,3 C 74 % 1017,3 hPa 0,0 l/m 0 min 0 min 49 W/m 12,9 km/h (3 Bft) 100,00 %
07.08.2023 19:18 18,2 C 17,2 C 13,3 C 74 % 1017,4 hPa 0,0 l/m 0 min 0 min 45 W/m 12,9 km/h (3 Bft) 100,00 %
07.08.2023 19:20 18,1 C 17,2 C 13,3 C 75 % 1017,4 hPa 0,0 l/m 0 min 0 min 47 W/m 9,7 km/h (2 Bft) 97,87 %
07.08.2023 19:22 18,1 C 16,7 C 13,3 C 75 % 1017,4 hPa 0,0 l/m 0 min 0 min 49 W/m 12,9 km/h (3 Bft) 100,00 %
07.08.2023 19:24 18,0 C 16,7 C 13,3 C 75 % 1017,3 hPa 0,0 l/m 0 min 0 min 49 W/m 9,7 km/h (2 Bft) 97,87 %
07.08.2023 19:26 17,9 C 16,7 C 13,3 C 75 % 1017,3 hPa 0,0 l/m 0 min 0 min 41 W/m 12,9 km/h (3 Bft) 100,00 %
07.08.2023 19:28 17,9 C 16,7 C 13,3 C 75 % 1017,4 hPa 0,0 l/m 0 min 0 min 40 W/m 9,7 km/h (2 Bft) 97,87 %
07.08.2023 19:30 17,8 C 16,7 C 13,3 C 76 % 1017,3 hPa 0,0 l/m 0 min 0 min 50 W/m 12,9 km/h (3 Bft) 97,87 %
07.08.2023 19:32 17,8 C 16,7 C 13,3 C 76 % 1017,3 hPa 0,0 l/m 0 min 0 min 54 W/m 6,4 km/h (2 Bft) 97,87 %
07.08.2023 19:34 17,8 C 16,7 C 13,3 C 76 % 1017,3 hPa 0,0 l/m 0 min 0 min 52 W/m 9,7 km/h (2 Bft) 100,00 %
07.08.2023 19:36 17,7 C 16,7 C 13,3 C 77 % 1017,4 hPa 0,0 l/m 0 min 0 min 55 W/m 6,4 km/h (2 Bft) 100,00 %
07.08.2023 19:38 17,7 C 17,2 C 13,3 C 77 % 1017,4 hPa 0,0 l/m 0 min 0 min 76 W/m 9,7 km/h (2 Bft) 97,87 %
07.08.2023 19:40 17,7 C 17,2 C 13,3 C 77 % 1017,3 hPa 0,0 l/m 0 min 0 min 89 W/m 9,7 km/h (2 Bft) 97,87 %
07.08.2023 19:42 17,7 C 17,2 C 13,3 C 77 % 1017,3 hPa 0,0 l/m 0 min 0 min 88 W/m 9,7 km/h (2 Bft) 97,87 %
07.08.2023 19:44 17,7 C 17,2 C 13,3 C 77 % 1017,3 hPa 0,0 l/m 0 min 0 min 85 W/m 6,4 km/h (2 Bft) 97,87 %
07.08.2023 19:46 17,7 C 17,2 C 13,3 C 77 % 1017,2 hPa 0,0 l/m 0 min 0 min 70 W/m 9,7 km/h (2 Bft) 97,87 %
07.08.2023 19:48 17,7 C 17,2 C 13,3 C 77 % 1017,3 hPa 0,0 l/m 0 min 0 min 54 W/m 6,4 km/h (2 Bft) 97,87 %
07.08.2023 19:50 17,6 C 16,7 C 13,3 C 77 % 1017,2 hPa 0,0 l/m 0 min 0 min 46 W/m 6,4 km/h (2 Bft) 97,83 %
07.08.2023 19:52 17,6 C 16,7 C 13,3 C 78 % 1017,3 hPa 0,0 l/m 0 min 0 min 40 W/m 3,2 km/h (1 Bft) 97,87 %
07.08.2023 19:54 17,6 C 16,7 C 12,8 C 78 % 1017,2 hPa 0,0 l/m 0 min 0 min 40 W/m 3,2 km/h (1 Bft) 97,87 %
07.08.2023 19:56 17,6 C 16,7 C 12,8 C 78 % 1017,3 hPa 0,0 l/m 0 min 0 min 40 W/m 3,2 km/h (1 Bft) 97,87 %
07.08.2023 19:58 17,6 C 16,7 C 12,8 C 78 % 1017,3 hPa 0,0 l/m 0 min 0 min 38 W/m 6,4 km/h (2 Bft) 97,87 %
07.08.2023 20:00 17,6 C 16,7 C 12,8 C 78 % 1017,2 hPa 0,0 l/m 0 min 0 min 37 W/m 0,0 km/h (0 Bft) 97,87 %
07.08.2023 20:02 17,6 C 16,7 C 12,8 C 78 % 1017,3 hPa 0,0 l/m 0 min 0 min 38 W/m 3,2 km/h (1 Bft) 97,87 %
07.08.2023 20:04 17,5 C 16,7 C 12,8 C 78 % 1017,3 hPa 0,0 l/m 0 min 0 min 40 W/m 0,0 km/h (0 Bft) 97,56 %
07.08.2023 20:06 17,5 C 16,7 C 12,8 C 78 % 1017,2 hPa 0,0 l/m 0 min 0 min 45 W/m 0,0 km/h (0 Bft) 96,23 %
07.08.2023 20:08 17,5 C 16,7 C 12,8 C 78 % 1017,2 hPa 0,0 l/m 0 min 0 min 53 W/m 0,0 km/h (0 Bft) 95,74 %
07.08.2023 20:10 17,5 C 16,7 C 12,8 C 79 % 1017,2 hPa 0,0 l/m 0 min 0 min 57 W/m 0,0 km/h (0 Bft) 97,87 %
07.08.2023 20:12 17,5 C 16,7 C 12,8 C 79 % 1017,2 hPa 0,0 l/m 0 min 0 min 64 W/m 0,0 km/h (0 Bft) 100,00 %
07.08.2023 20:14 17,5 C 16,7 C 12,8 C 79 % 1017,2 hPa 0,0 l/m 2 min 0 min 67 W/m 0,0 km/h (0 Bft) 100,00 %
07.08.2023 20:16 17,5 C 16,7 C 12,8 C 79 % 1017,2 hPa 0,0 l/m 0 min 0 min 58 W/m 0,0 km/h (0 Bft) 97,87 %
07.08.2023 20:18 17,5 C 16,7 C 12,8 C 79 % 1017,1 hPa 0,0 l/m 0 min 0 min 54 W/m 0,0 km/h (0 Bft) 97,83 %
07.08.2023 20:20 17,5 C 16,7 C 12,8 C 79 % 1017,2 hPa 0,0 l/m 0 min 0 min 52 W/m 0,0 km/h (0 Bft) 97,87 %
07.08.2023 20:22 17,5 C 16,7 C 12,8 C 79 % 1017,1 hPa 0,0 l/m 0 min 0 min 48 W/m 0,0 km/h (0 Bft) 97,87 %
07.08.2023 20:24 17,5 C 16,7 C 12,8 C 80 % 1017,2 hPa 0,0 l/m 0 min 0 min 42 W/m 0,0 km/h (0 Bft) 97,87 %
07.08.2023 20:26 17,5 C 16,7 C 12,8 C 80 % 1017,2 hPa 0,0 l/m 0 min 0 min 40 W/m 0,0 km/h (0 Bft) 97,87 %
07.08.2023 20:28 17,6 C 16,7 C 12,8 C 80 % 1017,1 hPa 0,0 l/m 0 min 0 min 32 W/m 0,0 km/h (0 Bft) 97,87 %
07.08.2023 20:30 17,6 C 16,7 C 12,8 C 80 % 1017,1 hPa 0,0 l/m 0 min 0 min 25 W/m 0,0 km/h (0 Bft) 97,87 %
07.08.2023 20:32 17,6 C 16,7 C 12,8 C 80 % 1017,1 hPa 0,0 l/m 0 min 0 min 21 W/m 0,0 km/h (0 Bft) 95,65 %
07.08.2023 20:34 17,6 C 16,7 C 12,8 C 80 % 1017,1 hPa 0,0 l/m 0 min 0 min 20 W/m 0,0 km/h (0 Bft) 93,62 %
07.08.2023 20:36 17,6 C 16,7 C 12,8 C 79 % 1017,1 hPa 0,0 l/m 0 min 0 min 17 W/m 0,0 km/h (0 Bft) 93,62 %
07.08.2023 20:38 17,6 C 16,7 C 12,8 C 79 % 1017,1 hPa 0,0 l/m 0 min 0 min 14 W/m 0,0 km/h (0 Bft) 95,74 %
07.08.2023 20:40 17,6 C 16,7 C 12,8 C 79 % 1017,1 hPa 0,0 l/m 0 min 0 min 12 W/m 12,9 km/h (3 Bft) 95,74 %
07.08.2023 20:42 17,6 C 16,7 C 12,8 C 79 % 1017,1 hPa 0,0 l/m 0 min 0 min 11 W/m 6,4 km/h (2 Bft) 91,49 %
07.08.2023 20:44 17,6 C 16,7 C 12,8 C 79 % 1017,1 hPa 0,0 l/m 0 min 0 min 11 W/m 3,2 km/h (1 Bft) 95,74 %
07.08.2023 20:46 17,6 C 16,7 C 12,8 C 78 % 1017,2 hPa 0,0 l/m 0 min 0 min 9 W/m 0,0 km/h (0 Bft) 95,65 %
07.08.2023 20:48 17,6 C 16,7 C 12,8 C 78 % 1017,2 hPa 0,0 l/m 0 min 0 min 8 W/m 3,2 km/h (1 Bft) 93,62 %
07.08.2023 20:50 17,6 C 16,7 C 12,2 C 78 % 1017,2 hPa 0,0 l/m 0 min 0 min 7 W/m 6,4 km/h (2 Bft) 95,74 %
07.08.2023 20:52 17,6 C 16,7 C 12,2 C 78 % 1017,2 hPa 0,0 l/m 0 min 0 min 7 W/m 6,4 km/h (2 Bft) 95,74 %
07.08.2023 20:54 17,5 C 16,1 C 12,2 C 78 % 1017,2 hPa 0,0 l/m 0 min 0 min 5 W/m 6,4 km/h (2 Bft) 91,49 %
07.08.2023 20:56 17,5 C 16,1 C 12,2 C 78 % 1017,2 hPa 0,0 l/m 0 min 0 min 5 W/m 6,4 km/h (2 Bft) 95,74 %
07.08.2023 20:58 17,4 C 16,1 C 12,2 C 78 % 1017,2 hPa 0,0 l/m 0 min 0 min 0 W/m 6,4 km/h (2 Bft) 93,62 %
07.08.2023 21:00 17,4 C 16,1 C 12,2 C 78 % 1017,2 hPa 0,0 l/m 0 min 0 min 0 W/m 6,4 km/h (2 Bft) 97,83 %
07.08.2023 21:02 17,4 C 16,1 C 12,2 C 79 % 1017,2 hPa 0,0 l/m 0 min 0 min 0 W/m 3,2 km/h (1 Bft) 95,74 %
07.08.2023 21:04 17,3 C 16,1 C 12,2 C 79 % 1017,2 hPa 0,0 l/m 0 min 0 min 0 W/m 6,4 km/h (2 Bft) 94,74 %
07.08.2023 21:06 17,3 C 16,1 C 12,2 C 78 % 1017,2 hPa 0,0 l/m 0 min 0 min 0 W/m 3,2 km/h (1 Bft) 98,04 %
07.08.2023 21:08 17,2 C 16,1 C 12,2 C 79 % 1017,2 hPa 0,0 l/m 0 min 0 min 0 W/m 3,2 km/h (1 Bft) 97,87 %
07.08.2023 21:10 17,2 C 16,1 C 12,2 C 79 % 1017,3 hPa 0,0 l/m 0 min 0 min 0 W/m 6,4 km/h (2 Bft) 97,87 %
07.08.2023 21:12 17,2 C 16,1 C 12,2 C 79 % 1017,3 hPa 0,0 l/m 0 min 0 min 0 W/m 6,4 km/h (2 Bft) 97,78 %
07.08.2023 21:14 17,1 C 16,1 C 12,2 C 79 % 1017,3 hPa 0,0 l/m 0 min 0 min 0 W/m 0,0 km/h (0 Bft) 95,92 %
07.08.2023 21:16 17,1 C 16,1 C 12,2 C 80 % 1017,4 hPa 0,0 l/m 0 min 0 min 0 W/m 3,2 km/h (1 Bft) 97,87 %
07.08.2023 21:18 17,1 C 16,1 C 12,2 C 80 % 1017,3 hPa 0,0 l/m 0 min 0 min 0 W/m 3,2 km/h (1 Bft) 98,11 %
07.08.2023 21:20 17,1 C 16,1 C 11,7 C 80 % 1017,3 hPa 0,0 l/m 0 min 0 min 0 W/m 0,0 km/h (0 Bft) 97,37 %
07.08.2023 21:22 17,1 C 15,6 C 11,7 C 80 % 1017,4 hPa 0,0 l/m 0 min 0 min 0 W/m 0,0 km/h (0 Bft) 95,92 %
07.08.2023 21:24 17,0 C 15,6 C 11,7 C 80 % 1017,4 hPa 0,0 l/m 0 min 0 min 0 W/m 0,0 km/h (0 Bft) 100,00 %
07.08.2023 21:26 16,9 C 15,6 C 11,7 C 81 % 1017,3 hPa 0,0 l/m 0 min 0 min 0 W/m 0,0 km/h (0 Bft) 100,00 %
07.08.2023 21:28 16,9 C 15,6 C 11,7 C 81 % 1017,4 hPa 0,0 l/m 0 min 0 min 0 W/m 0,0 km/h (0 Bft) 100,00 %
07.08.2023 21:30 16,8 C 15,0 C 11,7 C 81 % 1017,4 hPa 0,0 l/m 0 min 0 min 0 W/m 0,0 km/h (0 Bft) 97,87 %
07.08.2023 21:32 16,8 C 15,0 C 11,1 C 81 % 1017,4 hPa 0,0 l/m 0 min 0 min 0 W/m 0,0 km/h (0 Bft) 95,74 %
07.08.2023 21:34 16,7 C 15,0 C 11,1 C 82 % 1017,4 hPa 0,0 l/m 0 min 0 min 0 W/m 0,0 km/h (0 Bft) 95,65 %
07.08.2023 21:36 16,7 C 15,0 C 11,1 C 81 % 1017,4 hPa 0,0 l/m 0 min 0 min 0 W/m 0,0 km/h (0 Bft) 97,87 %
07.08.2023 21:38 16,7 C 15,0 C 11,1 C 82 % 1017,4 hPa 0,0 l/m 0 min 0 min 0 W/m 0,0 km/h (0 Bft) 97,87 %
07.08.2023 21:40 16,6 C 15,0 C 11,1 C 82 % 1017,4 hPa 0,0 l/m 0 min 0 min 0 W/m 0,0 km/h (0 Bft) 97,87 %
07.08.2023 21:42 16,6 C 15,0 C 11,1 C 82 % 1017,3 hPa 0,0 l/m 0 min 0 min 0 W/m 0,0 km/h (0 Bft) 97,87 %
07.08.2023 21:44 16,4 C 15,0 C 11,1 C 82 % 1017,3 hPa 0,0 l/m 0 min 0 min 0 W/m 0,0 km/h (0 Bft) 95,74 %
07.08.2023 21:46 16,4 C 15,0 C 11,1 C 83 % 1017,3 hPa 0,0 l/m 0 min 0 min 0 W/m 0,0 km/h (0 Bft) 97,87 %
07.08.2023 21:48 16,4 C 15,0 C 11,1 C 83 % 1017,3 hPa 0,0 l/m 0 min 0 min 0 W/m 0,0 km/h (0 Bft) 97,83 %
07.08.2023 21:50 16,3 C 15,0 C 11,1 C 83 % 1017,3 hPa 0,0 l/m 0 min 0 min 0 W/m 0,0 km/h (0 Bft) 97,87 %
07.08.2023 21:52 16,3 C 15,0 C 11,1 C 83 % 1017,3 hPa 0,0 l/m 0 min 0 min 0 W/m 0,0 km/h (0 Bft) 95,74 %
07.08.2023 21:54 16,3 C 15,0 C 11,1 C 83 % 1017,2 hPa 0,0 l/m 0 min 0 min 0 W/m 0,0 km/h (0 Bft) 93,75 %
07.08.2023 21:56 16,3 C 15,0 C 11,1 C 83 % 1017,3 hPa 0,0 l/m 0 min 0 min 0 W/m 0,0 km/h (0 Bft) 97,87 %
07.08.2023 21:58 16,3 C 15,0 C 11,1 C 83 % 1017,3 hPa 0,0 l/m 0 min 0 min 0 W/m 0,0 km/h (0 Bft) 97,87 %
07.08.2023 22:00 16,2 C 15,0 C 11,1 C 84 % 1017,2 hPa 0,0 l/m 0 min 0 min 0 W/m 0,0 km/h (0 Bft) 97,83 %
07.08.2023 22:02 16,2 C 15,0 C 11,1 C 84 % 1017,2 hPa 0,0 l/m 0 min 0 min 0 W/m 0,0 km/h (0 Bft) 97,87 %
07.08.2023 22:04 16,2 C 15,0 C 11,1 C 84 % 1017,2 hPa 0,0 l/m 0 min 0 min 0 W/m 0,0 km/h (0 Bft) 100,00 %
07.08.2023 22:06 16,2 C 15,0 C 11,1 C 84 % 1017,2 hPa 0,0 l/m 0 min 0 min 0 W/m 0,0 km/h (0 Bft) 97,87 %
07.08.2023 22:08 16,1 C 14,4 C 11,1 C 84 % 1017,2 hPa 0,0 l/m 0 min 0 min 0 W/m 0,0 km/h (0 Bft) 100,00 %
07.08.2023 22:10 16,1 C 14,4 C 11,1 C 84 % 1017,2 hPa 0,0 l/m 0 min 0 min 0 W/m 0,0 km/h (0 Bft) 100,00 %
07.08.2023 22:12 16,0 C 14,4 C 11,1 C 84 % 1017,2 hPa 0,0 l/m 0 min 0 min 0 W/m 0,0 km/h (0 Bft) 100,00 %
07.08.2023 22:14 16,0 C 14,4 C 10,6 C 84 % 1017,2 hPa 0,0 l/m 0 min 0 min 0 W/m 0,0 km/h (0 Bft) 100,00 %
07.08.2023 22:16 15,9 C 14,4 C 10,6 C 84 % 1017,2 hPa 0,0 l/m 0 min 0 min 0 W/m 0,0 km/h (0 Bft) 100,00 %
07.08.2023 22:18 15,9 C 14,4 C 10,6 C 84 % 1017,2 hPa 0,0 l/m 0 min 0 min 0 W/m 0,0 km/h (0 Bft) 100,00 %
07.08.2023 22:20 15,8 C 14,4 C 10,6 C 84 % 1017,2 hPa 0,0 l/m 0 min 0 min 0 W/m 3,2 km/h (1 Bft) 97,87 %
07.08.2023 22:22 15,8 C 14,4 C 10,6 C 84 % 1017,2 hPa 0,0 l/m 0 min 0 min 0 W/m 3,2 km/h (1 Bft) 100,00 %
07.08.2023 22:24 15,8 C 14,4 C 10,6 C 85 % 1017,2 hPa 0,0 l/m 0 min 0 min 0 W/m 0,0 km/h (0 Bft) 100,00 %
07.08.2023 22:26 15,8 C 14,4 C 10,6 C 85 % 1017,1 hPa 0,0 l/m 0 min 0 min 0 W/m 0,0 km/h (0 Bft) 100,00 %
07.08.2023 22:28 15,7 C 14,4 C 10,6 C 85 % 1017,1 hPa 0,0 l/m 0 min 0 min 0 W/m 3,2 km/h (1 Bft) 100,00 %
07.08.2023 22:30 15,7 C 14,4 C 10,6 C 85 % 1017,1 hPa 0,0 l/m 0 min 0 min 0 W/m 0,0 km/h (0 Bft) 100,00 %
07.08.2023 22:32 15,6 C 14,4 C 10,6 C 85 % 1017,1 hPa 0,0 l/m 0 min 0 min 0 W/m 0,0 km/h (0 Bft) 100,00 %
07.08.2023 22:34 15,6 C 14,4 C 10,6 C 85 % 1017,1 hPa 0,0 l/m 0 min 0 min 0 W/m 0,0 km/h (0 Bft) 100,00 %
07.08.2023 22:36 15,6 C 14,4 C 10,6 C 85 % 1017,1 hPa 0,0 l/m 0 min 0 min 0 W/m 0,0 km/h (0 Bft) 97,87 %
07.08.2023 22:38 15,6 C 14,4 C 10,6 C 85 % 1017,1 hPa 0,0 l/m 0 min 0 min 0 W/m 0,0 km/h (0 Bft) 100,00 %
07.08.2023 22:40 15,6 C 14,4 C 10,6 C 85 % 1017,1 hPa 0,0 l/m 0 min 0 min 0 W/m 0,0 km/h (0 Bft) 100,00 %
07.08.2023 22:42 15,5 C 13,9 C 10,6 C 85 % 1017,0 hPa 0,0 l/m 0 min 0 min 0 W/m 0,0 km/h (0 Bft) 97,87 %
07.08.2023 22:44 15,4 C 13,9 C 10,6 C 85 % 1017,0 hPa 0,0 l/m 0 min 0 min 0 W/m 0,0 km/h (0 Bft) 97,87 %
07.08.2023 22:46 15,4 C 13,9 C 10,6 C 85 % 1017,0 hPa 0,0 l/m 0 min 0 min 0 W/m 0,0 km/h (0 Bft) 100,00 %
07.08.2023 22:48 15,4 C 14,4 C 10,6 C 85 % 1017,0 hPa 0,0 l/m 0 min 0 min 0 W/m 3,2 km/h (1 Bft) 100,00 %
07.08.2023 22:50 15,3 C 14,4 C 10,6 C 85 % 1017,0 hPa 0,0 l/m 0 min 0 min 0 W/m 3,2 km/h (1 Bft) 95,74 %
07.08.2023 22:52 15,3 C 14,4 C 10,6 C 85 % 1016,9 hPa 0,0 l/m 0 min 0 min 0 W/m 3,2 km/h (1 Bft) 97,87 %
07.08.2023 22:54 15,3 C 14,4 C 10,6 C 85 % 1016,9 hPa 0,0 l/m 0 min 0 min 0 W/m 0,0 km/h (0 Bft) 95,74 %
07.08.2023 22:56 15,3 C 14,4 C 10,6 C 85 % 1017,0 hPa 0,0 l/m 0 min 0 min 0 W/m 0,0 km/h (0 Bft) 97,87 %
07.08.2023 22:58 15,3 C 14,4 C 10,6 C 85 % 1017,0 hPa 0,0 l/m 0 min 0 min 0 W/m 0,0 km/h (0 Bft) 97,87 %
07.08.2023 23:00 15,3 C 14,4 C 10,6 C 85 % 1017,1 hPa 0,0 l/m 0 min 0 min 0 W/m 3,2 km/h (1 Bft) 97,87 %
07.08.2023 23:02 15,2 C 13,9 C 10,6 C 85 % 1017,0 hPa 0,0 l/m 0 min 0 min 0 W/m 0,0 km/h (0 Bft) 95,65 %
07.08.2023 23:04 15,2 C 13,9 C 10,6 C 85 % 1017,0 hPa 0,0 l/m 0 min 0 min 0 W/m 0,0 km/h (0 Bft) 95,92 %
07.08.2023 23:06 15,2 C 13,9 C 10,6 C 85 % 1016,9 hPa 0,0 l/m 0 min 0 min 0 W/m 3,2 km/h (1 Bft) 95,74 %
07.08.2023 23:08 15,2 C 13,9 C 10,6 C 85 % 1016,9 hPa 0,0 l/m 0 min 0 min 0 W/m 6,4 km/h (2 Bft) 97,87 %
07.08.2023 23:10 15,1 C 13,9 C 10,6 C 85 % 1016,9 hPa 0,0 l/m 0 min 0 min 0 W/m 3,2 km/h (1 Bft) 97,87 %
07.08.2023 23:12 15,1 C 13,9 C 10,6 C 85 % 1016,9 hPa 0,0 l/m 0 min 0 min 0 W/m 3,2 km/h (1 Bft) 97,87 %
07.08.2023 23:14 15,1 C 13,9 C 10,6 C 85 % 1016,9 hPa 0,0 l/m 0 min 0 min 0 W/m 3,2 km/h (1 Bft) 95,65 %
07.08.2023 23:16 15,1 C 13,9 C 10,6 C 86 % 1016,8 hPa 0,0 l/m 0 min 0 min 0 W/m 3,2 km/h (1 Bft) 97,87 %
07.08.2023 23:18 15,1 C 13,9 C 10,6 C 86 % 1016,8 hPa 0,0 l/m 0 min 0 min 0 W/m 3,2 km/h (1 Bft) 95,74 %
07.08.2023 23:20 15,0 C 13,9 C 10,6 C 86 % 1016,8 hPa 0,0 l/m 0 min 0 min 0 W/m 6,4 km/h (2 Bft) 95,74 %
07.08.2023 23:22 15,0 C 13,9 C 10,6 C 86 % 1016,8 hPa 0,0 l/m 0 min 0 min 0 W/m 3,2 km/h (1 Bft) 93,62 %
07.08.2023 23:24 14,9 C 13,9 C 10,6 C 86 % 1016,8 hPa 0,0 l/m 0 min 0 min 0 W/m 3,2 km/h (1 Bft) 97,87 %
07.08.2023 23:26 14,9 C 13,9 C 10,6 C 85 % 1016,8 hPa 0,0 l/m 0 min 0 min 0 W/m 3,2 km/h (1 Bft) 95,74 %
07.08.2023 23:28 14,9 C 13,9 C 10,6 C 85 % 1016,8 hPa 0,0 l/m 0 min 0 min 0 W/m 0,0 km/h (0 Bft) 95,74 %
07.08.2023 23:30 14,9 C 13,9 C 10,6 C 86 % 1016,8 hPa 0,0 l/m 0 min 0 min 0 W/m 0,0 km/h (0 Bft) 97,83 %
07.08.2023 23:32 14,8 C 13,9 C 10,6 C 86 % 1016,8 hPa 0,0 l/m 0 min 0 min 0 W/m 0,0 km/h (0 Bft) 97,87 %
07.08.2023 23:34 14,8 C 13,9 C 10,6 C 86 % 1016,8 hPa 0,0 l/m 0 min 0 min 0 W/m 0,0 km/h (0 Bft) 97,87 %
07.08.2023 23:36 14,8 C 13,9 C 10,6 C 86 % 1016,8 hPa 0,0 l/m 0 min 0 min 0 W/m 0,0 km/h (0 Bft) 97,87 %
07.08.2023 23:38 14,8 C 13,9 C 10,6 C 86 % 1016,7 hPa 0,0 l/m 0 min 0 min 0 W/m 0,0 km/h (0 Bft) 97,87 %
07.08.2023 23:40 14,8 C 13,9 C 10,6 C 86 % 1016,7 hPa 0,0 l/m 0 min 0 min 0 W/m 0,0 km/h (0 Bft) 97,87 %
07.08.2023 23:42 14,8 C 13,9 C 10,6 C 86 % 1016,8 hPa 0,0 l/m 0 min 0 min 0 W/m 0,0 km/h (0 Bft) 97,83 %
07.08.2023 23:44 14,8 C 13,9 C 10,6 C 86 % 1016,8 hPa 0,0 l/m 0 min 0 min 0 W/m 0,0 km/h (0 Bft) 97,87 %
07.08.2023 23:46 14,8 C 13,9 C 10,6 C 86 % 1016,8 hPa 0,0 l/m 0 min 0 min 0 W/m 0,0 km/h (0 Bft) 95,74 %
07.08.2023 23:48 14,8 C 13,9 C 10,6 C 86 % 1016,8 hPa 0,0 l/m 0 min 0 min 0 W/m 3,2 km/h (1 Bft) 95,74 %
07.08.2023 23:50 14,8 C 13,9 C 10,6 C 86 % 1016,7 hPa 0,0 l/m 0 min 0 min 0 W/m 0,0 km/h (0 Bft) 95,74 %
07.08.2023 23:52 14,8 C 13,9 C 10,6 C 87 % 1016,7 hPa 0,0 l/m 0 min 0 min 0 W/m 3,2 km/h (1 Bft) 97,87 %
07.08.2023 23:54 14,8 C 13,9 C 10,6 C 86 % 1016,6 hPa 0,0 l/m 0 min 0 min 0 W/m 6,4 km/h (2 Bft) 97,87 %
07.08.2023 23:56 14,7 C 13,9 C 10,6 C 87 % 1016,6 hPa 0,0 l/m 0 min 0 min 0 W/m 3,2 km/h (1 Bft) 95,74 %
07.08.2023 23:58 14,7 C 13,9 C 10,6 C 87 % 1016,6 hPa 0,0 l/m 0 min 0 min 0 W/m 3,2 km/h (1 Bft) 97,83 %
_ Min-Zeit 05:28 03:54 05:38 15:24 01:12 - - - - 20:00 00:02
Minimum _ 12,3 C 11,7 C 8,3 C 56 % 1012,5 hPa - - - - 0,0 km/h (0 Bft) 6,25 %
_ Max-Zeit 15:06 14:50 12:28 10:46 17:20 10:24 12:12 02:02 14:50 08:34 00:56
Maximum _ 20,4 C 25,6 C 16,7 C 99 % 1017,6 hPa 0,4 l/m 4 min 2 min 1094 W/m 48,3 km/h
SO (6 Bft)
100,00 %
Durchschnitt _ 15,4 C 15,6 C 11,3 C 85 % 1015,4 hPa #4,0 l/m #5:50 h #4:00 h 341 W/m 16,1 km/h (3 Bft) 97,18 %
© 2023 W. Hausmann